GWIZZ EGPK-EKVG

Flight info

Callsign GWIZZ
Flight time 3h 8m
Altitude 5000
Route TRN DCT GOW N560 INBAS/N0150F040 DCT STN DCT ADASI/N0152F050 DCT NALAN/M024F040 DCT ROBUR DCT VG
Aircraft PA24/L-SDGRY/S

Departure

Time 2026-04-22 00:15
Airport Glasgow Prestwick Airport (EGPK)

Arrival

Time 2026-04-22 03:23
Airport Vágar Airport (EKVG)
Time Latitude Longitude Altitude Speed Heading
2026-04-21 23:58 55.50139 -4.58269 56 ft 0 kts 226°
2026-04-22 00:05 55.50144 -4.58287 56 ft 1 kts
2026-04-22 00:05 55.50146 -4.58255 52 ft 8 kts 117°
2026-04-22 00:06 55.50119 -4.58164 56 ft 9 kts 117°
2026-04-22 00:06 55.50111 -4.58134 56 ft 0 kts 114°
2026-04-22 00:07 55.50127 -4.58087 53 ft 8 kts 22°
2026-04-22 00:07 55.50172 -4.58051 59 ft 7 kts 21°
2026-04-22 00:08 55.50229 -4.58006 59 ft 8 kts 18°
2026-04-22 00:08 55.50264 -4.58023 62 ft 7 kts 313°
2026-04-22 00:08 55.50304 -4.58134 61 ft 15 kts 301°
2026-04-22 00:08 55.50375 -4.58339 63 ft 24 kts 296°
2026-04-22 00:09 55.50470 -4.58611 60 ft 25 kts 302°
2026-04-22 00:09 55.50544 -4.58871 53 ft 23 kts 294°
2026-04-22 00:09 55.50614 -4.59098 51 ft 19 kts 302°
2026-04-22 00:09 55.50677 -4.59274 49 ft 15 kts 301°
2026-04-22 00:10 55.50723 -4.59412 51 ft 12 kts 302°
2026-04-22 00:10 55.50770 -4.59547 49 ft 14 kts 301°
2026-04-22 00:10 55.50824 -4.59700 49 ft 16 kts 301°
2026-04-22 00:10 55.50890 -4.59894 44 ft 21 kts 300°
2026-04-22 00:11 55.50970 -4.60127 40 ft 24 kts 301°
2026-04-22 00:11 55.51057 -4.60380 42 ft 25 kts 298°
2026-04-22 00:11 55.51148 -4.60642 43 ft 25 kts 301°
2026-04-22 00:11 55.51235 -4.60894 41 ft 22 kts 302°
2026-04-22 00:12 55.51313 -4.61118 37 ft 20 kts 300°
2026-04-22 00:12 55.51384 -4.61307 37 ft 17 kts 302°
2026-04-22 00:12 55.51438 -4.61444 38 ft 10 kts 321°
2026-04-22 00:12 55.51476 -4.61487 40 ft 5 kts 330°
2026-04-22 00:13 55.51494 -4.61505 41 ft 5 kts 332°
2026-04-22 00:13 55.51529 -4.61527 41 ft 0 kts 347°
2026-04-22 00:13 55.51530 -4.61527 41 ft 1 kts 347°
2026-04-22 00:13 55.51564 -4.61527 41 ft 9 kts 18°
2026-04-22 00:14 55.51602 -4.61420 38 ft 12 kts 101°
2026-04-22 00:14 55.51560 -4.61256 35 ft 24 kts 119°
2026-04-22 00:14 55.51313 -4.60542 53 ft 77 kts 114°
2026-04-22 00:14 55.51115 -4.59995 160 ft 82 kts 114°
2026-04-22 00:15 55.50817 -4.59090 422 ft 88 kts 112°
2026-04-22 00:15 55.50729 -4.58019 672 ft 97 kts 74°
2026-04-22 00:15 55.50971 -4.56946 1046 ft 93 kts 80°
2026-04-22 00:15 55.51115 -4.55868 1434 ft 90 kts 72°
2026-04-22 00:16 55.51332 -4.54843 1809 ft 89 kts 75°
2026-04-22 00:16 55.51854 -4.54221 2093 ft 113 kts 12°
2026-04-22 00:16 55.52685 -4.54633 2227 ft 139 kts 346°
2026-04-22 00:16 55.53573 -4.55481 2380 ft 148 kts 339°
2026-04-22 00:17 55.54441 -4.56409 2468 ft 144 kts 336°
2026-04-22 00:17 55.55304 -4.57159 2544 ft 132 kts 352°
2026-04-22 00:17 55.56183 -4.57308 2560 ft 125 kts 14°
2026-04-22 00:17 55.57046 -4.57112 2583 ft 127 kts 19°
2026-04-22 00:18 55.57930 -4.56881 2558 ft 129 kts 18°
2026-04-22 00:18 55.58822 -4.56628 2539 ft 130 kts 19°
2026-04-22 00:18 55.59717 -4.56364 2525 ft 130 kts 19°
2026-04-22 00:18 55.60616 -4.56112 2506 ft 131 kts 19°
2026-04-22 00:19 55.61516 -4.55856 2498 ft 131 kts 19°
2026-04-22 00:19 55.62419 -4.55602 2499 ft 132 kts 19°
2026-04-22 00:19 55.63325 -4.55360 2484 ft 133 kts 17°
2026-04-22 00:19 55.64174 -4.54930 2487 ft 120 kts 39°
2026-04-22 00:20 55.64772 -4.54037 2602 ft 110 kts 47°
2026-04-22 00:20 55.65496 -4.53508 2705 ft 114 kts 25°
2026-04-22 00:20 55.66244 -4.53137 2826 ft 109 kts 27°
2026-04-22 00:20 55.66974 -4.52810 2944 ft 107 kts 25°
2026-04-22 00:21 55.67697 -4.52500 3074 ft 111 kts 25°
2026-04-22 00:21 55.68481 -4.52159 3218 ft 121 kts 24°
2026-04-22 00:21 55.69323 -4.51808 3362 ft 127 kts 23°
2026-04-22 00:21 55.70192 -4.51455 3501 ft 129 kts 22°
2026-04-22 00:22 55.71055 -4.51107 3643 ft 129 kts 24°
2026-04-22 00:22 55.71936 -4.50750 3778 ft 130 kts 24°
2026-04-22 00:22 55.72820 -4.50389 3911 ft 131 kts 23°
2026-04-22 00:22 55.73713 -4.50025 4039 ft 132 kts 23°
2026-04-22 00:23 55.74615 -4.49656 4093 ft 136 kts 23°
2026-04-22 00:23 55.75558 -4.49263 4100 ft 142 kts 21°
2026-04-22 00:23 55.76522 -4.48869 4108 ft 142 kts 21°
2026-04-22 00:23 55.77488 -4.48481 4116 ft 143 kts 21°
2026-04-22 00:24 55.78462 -4.48084 4120 ft 144 kts 21°
2026-04-22 00:24 55.79439 -4.47684 4121 ft 144 kts 21°
2026-04-22 00:24 55.80417 -4.47283 4121 ft 144 kts 21°
2026-04-22 00:24 55.81390 -4.46886 4122 ft 144 kts 21°
2026-04-22 00:25 55.82360 -4.46483 4125 ft 144 kts 22°
2026-04-22 00:25 55.83341 -4.46084 4124 ft 145 kts 21°
2026-04-22 00:25 55.84320 -4.45684 4122 ft 144 kts 21°
2026-04-22 00:25 55.85296 -4.45278 4124 ft 144 kts 22°
2026-04-22 00:26 55.86276 -4.44868 4122 ft 145 kts 22°
2026-04-22 00:26 55.87259 -4.44458 4124 ft 145 kts 22°
2026-04-22 00:26 55.88240 -4.44048 4124 ft 144 kts 22°
2026-04-22 00:26 55.89218 -4.43639 4123 ft 145 kts 22°
2026-04-22 00:27 55.90198 -4.43227 4123 ft 145 kts 22°
2026-04-22 00:27 55.91184 -4.42836 4124 ft 146 kts 20°
2026-04-22 00:27 55.92174 -4.42450 4124 ft 145 kts 21°
2026-04-22 00:27 55.93160 -4.42053 4126 ft 145 kts 21°
2026-04-22 00:28 55.94147 -4.41643 4126 ft 146 kts 22°
2026-04-22 00:28 55.95138 -4.41235 4124 ft 146 kts 22°
2026-04-22 00:28 55.96131 -4.40825 4128 ft 147 kts 21°
2026-04-22 00:28 55.97132 -4.40413 4125 ft 148 kts 21°
2026-04-22 00:29 55.98135 -4.39993 4125 ft 148 kts 22°
2026-04-22 00:29 55.99156 -4.39753 4110 ft 155 kts
2026-04-22 00:29 56.00234 -4.40044 4102 ft 157 kts 359°
2026-04-22 00:29 56.01307 -4.40325 4098 ft 155 kts
2026-04-22 00:30 56.02366 -4.40615 4094 ft 153 kts
2026-04-22 00:30 56.03420 -4.40902 4073 ft 154 kts
2026-04-22 00:30 56.04479 -4.41110 4036 ft 150 kts
2026-04-22 00:30 56.05453 -4.40664 3994 ft 143 kts 32°
2026-04-22 00:31 56.06411 -4.40107 3987 ft 146 kts 20°
2026-04-22 00:31 56.07418 -4.39836 3988 ft 146 kts 17°
2026-04-22 00:31 56.08430 -4.39596 3988 ft 147 kts 16°
2026-04-22 00:31 56.09444 -4.39359 3983 ft 147 kts 16°
2026-04-22 00:32 56.10460 -4.39121 3986 ft 148 kts 16°
2026-04-22 00:32 56.11481 -4.38883 3988 ft 147 kts 16°
2026-04-22 00:32 56.12496 -4.38646 3985 ft 147 kts 17°
2026-04-22 00:32 56.13508 -4.38407 3983 ft 146 kts 17°
2026-04-22 00:33 56.14518 -4.38171 3983 ft 147 kts 16°
2026-04-22 00:33 56.15517 -4.37937 3982 ft 147 kts 16°
2026-04-22 00:33 56.16513 -4.37708 4061 ft 142 kts 17°
2026-04-22 00:33 56.17478 -4.37478 4162 ft 139 kts 16°
2026-04-22 00:34 56.18426 -4.37260 4258 ft 136 kts 17°
2026-04-22 00:34 56.19364 -4.37040 4360 ft 135 kts 16°
2026-04-22 00:34 56.20300 -4.36819 4457 ft 135 kts 17°
2026-04-22 00:34 56.21233 -4.36599 4559 ft 135 kts 17°
2026-04-22 00:35 56.22172 -4.36374 4658 ft 136 kts 17°
2026-04-22 00:35 56.23106 -4.36155 4761 ft 135 kts 16°
2026-04-22 00:35 56.24037 -4.35940 4862 ft 135 kts 15°
2026-04-22 00:35 56.24957 -4.35738 4967 ft 132 kts 16°
2026-04-22 00:36 56.25865 -4.35506 5074 ft 132 kts 17°
2026-04-22 00:36 56.26776 -4.35288 5169 ft 132 kts 17°
2026-04-22 00:36 56.27694 -4.35069 5230 ft 136 kts 16°
2026-04-22 00:36 56.28670 -4.34829 5138 ft 146 kts 15°
2026-04-22 00:37 56.29710 -4.34592 5054 ft 155 kts 15°
2026-04-22 00:37 56.30790 -4.34332 4959 ft 156 kts 15°
2026-04-22 00:37 56.31847 -4.34089 4954 ft 151 kts 15°
2026-04-22 00:37 56.32877 -4.33837 4952 ft 148 kts 17°
2026-04-22 00:38 56.33893 -4.33599 4947 ft 146 kts 15°
2026-04-22 00:38 56.34892 -4.33376 4943 ft 143 kts 16°
2026-04-22 00:38 56.35867 -4.33144 4939 ft 140 kts 16°
2026-04-22 00:38 56.36832 -4.32911 4940 ft 141 kts 16°
2026-04-22 00:39 56.37807 -4.32678 4938 ft 142 kts 15°
2026-04-22 00:39 56.38784 -4.32445 4927 ft 141 kts 15°
2026-04-22 00:39 56.39746 -4.32221 4925 ft 138 kts 15°
2026-04-22 00:39 56.40687 -4.32001 4934 ft 140 kts 16°
2026-04-22 00:40 56.41660 -4.31760 4922 ft 139 kts 16°
2026-04-22 00:40 56.42592 -4.31545 4918 ft 131 kts 17°
2026-04-22 00:40 56.43476 -4.31347 4922 ft 125 kts 16°
2026-04-22 00:40 56.44308 -4.31141 4934 ft 116 kts 17°
2026-04-22 00:41 56.45090 -4.30963 4976 ft 112 kts 17°
2026-04-22 00:41 56.45857 -4.30782 5009 ft 111 kts 18°
2026-04-22 00:41 56.46622 -4.30598 5025 ft 110 kts 18°
2026-04-22 00:41 56.47387 -4.30415 5044 ft 112 kts 18°
2026-04-22 00:42 56.48157 -4.30228 5094 ft 111 kts 18°
2026-04-22 00:42 56.48933 -4.30041 5077 ft 116 kts 18°
2026-04-22 00:42 56.49764 -4.29826 5016 ft 125 kts 18°
2026-04-22 00:42 56.50632 -4.29614 4984 ft 125 kts 16°
2026-04-22 00:43 56.51486 -4.29419 4988 ft 122 kts 15°
2026-04-22 00:43 56.52343 -4.29200 5002 ft 127 kts 18°
2026-04-22 00:43 56.53229 -4.28996 5006 ft 129 kts 14°
2026-04-22 00:43 56.54124 -4.28795 5008 ft 129 kts 16°
2026-04-22 00:44 56.55006 -4.28575 5004 ft 127 kts 17°
2026-04-22 00:44 56.55880 -4.28370 5011 ft 127 kts 16°
2026-04-22 00:44 56.56745 -4.28151 4997 ft 123 kts 17°
2026-04-22 00:44 56.57582 -4.27964 5003 ft 120 kts 16°
2026-04-22 00:45 56.58403 -4.27753 4998 ft 122 kts 17°
2026-04-22 00:45 56.59258 -4.27563 4995 ft 124 kts 16°
2026-04-22 00:45 56.60106 -4.27358 4998 ft 123 kts 17°
2026-04-22 00:45 56.60958 -4.27152 5001 ft 125 kts 16°
2026-04-22 00:46 56.61820 -4.26943 4995 ft 123 kts 16°
2026-04-22 00:46 56.62674 -4.26770 4993 ft 124 kts 15°
2026-04-22 00:46 56.63512 -4.26538 4990 ft 120 kts 17°
2026-04-22 00:46 56.64335 -4.26337 4987 ft 119 kts 16°
2026-04-22 00:47 56.65152 -4.26144 4984 ft 118 kts 16°
2026-04-22 00:47 56.65968 -4.25947 4988 ft 121 kts 17°
2026-04-22 00:47 56.66811 -4.25726 4988 ft 122 kts 19°
2026-04-22 00:47 56.67643 -4.25530 4987 ft 120 kts 15°
2026-04-22 00:48 56.68462 -4.25352 4986 ft 118 kts 16°
2026-04-22 00:48 56.69279 -4.25152 4985 ft 118 kts 17°
2026-04-22 00:48 56.70114 -4.25090 4970 ft 126 kts
2026-04-22 00:48 56.70938 -4.25777 4949 ft 136 kts 330°
2026-04-22 00:49 56.71674 -4.26854 4952 ft 136 kts 328°
2026-04-22 00:49 56.72427 -4.27883 4953 ft 135 kts 331°
2026-04-22 00:49 56.73198 -4.28858 4953 ft 135 kts 332°
2026-04-22 00:49 56.73974 -4.29815 4956 ft 135 kts 333°
2026-04-22 00:50 56.74750 -4.30768 4953 ft 134 kts 333°
2026-04-22 00:50 56.75525 -4.31715 4951 ft 134 kts 333°
2026-04-22 00:50 56.76292 -4.32653 4943 ft 131 kts 333°
2026-04-22 00:50 56.77035 -4.33573 4949 ft 131 kts 331°
2026-04-22 00:51 56.77799 -4.34504 4948 ft 133 kts 332°
2026-04-22 00:51 56.78567 -4.35443 4946 ft 132 kts 332°
2026-04-22 00:51 56.79330 -4.36379 4945 ft 132 kts 332°
2026-04-22 00:51 56.80092 -4.37314 4950 ft 133 kts 332°
2026-04-22 00:52 56.80860 -4.38250 4951 ft 133 kts 332°
2026-04-22 00:52 56.81614 -4.39183 4949 ft 130 kts 332°
2026-04-22 00:52 56.82366 -4.40108 4949 ft 131 kts 332°
2026-04-22 00:52 56.83126 -4.41040 4953 ft 132 kts 332°
2026-04-22 00:53 56.83897 -4.41986 4952 ft 134 kts 332°
2026-04-22 00:53 56.84671 -4.42942 4953 ft 134 kts 332°
2026-04-22 00:53 56.85445 -4.43896 4959 ft 135 kts 332°
2026-04-22 00:53 56.86232 -4.44860 4958 ft 137 kts 332°
2026-04-22 00:54 56.87004 -4.45823 4955 ft 132 kts 331°
2026-04-22 00:54 56.87771 -4.46766 4957 ft 134 kts 332°
2026-04-22 00:54 56.88555 -4.47715 4965 ft 138 kts 332°
2026-04-22 00:54 56.89333 -4.48702 4952 ft 133 kts 331°
2026-04-22 00:55 56.90091 -4.49630 4937 ft 128 kts 332°
2026-04-22 00:55 56.90801 -4.50506 4918 ft 121 kts 331°
2026-04-22 00:55 56.92236 -4.52291 4920 ft 127 kts 330°
2026-04-22 00:56 56.92959 -4.53188 4926 ft 126 kts 332°
2026-04-22 00:56 56.93692 -4.54088 4938 ft 127 kts 332°
2026-04-22 00:56 56.94434 -4.55010 4973 ft 131 kts 331°
2026-04-22 00:56 56.95195 -4.55956 5006 ft 133 kts 333°
2026-04-22 00:57 56.95946 -4.56862 5020 ft 126 kts 332°
2026-04-22 00:57 56.96668 -4.57782 5047 ft 128 kts 331°
2026-04-22 00:57 56.97389 -4.58681 5063 ft 122 kts 332°
2026-04-22 00:57 56.98089 -4.59552 5084 ft 121 kts 332°
2026-04-22 00:58 56.98782 -4.60416 5104 ft 120 kts 332°
2026-04-22 00:58 56.99468 -4.61274 5126 ft 119 kts 332°
2026-04-22 00:58 57.00155 -4.62126 5147 ft 120 kts 332°
2026-04-22 00:58 57.00848 -4.62984 5179 ft 121 kts 332°
2026-04-22 00:59 57.01546 -4.63852 5208 ft 122 kts 332°
2026-04-22 00:59 57.02251 -4.64726 5220 ft 122 kts 332°
2026-04-22 00:59 57.02954 -4.65595 5221 ft 122 kts 330°
2026-04-22 00:59 57.03658 -4.66477 5225 ft 123 kts 330°
2026-04-22 01:00 57.04377 -4.67368 5228 ft 125 kts 331°
2026-04-22 01:00 57.05088 -4.68253 5236 ft 126 kts 330°
2026-04-22 01:00 57.05824 -4.69169 5242 ft 129 kts 331°
2026-04-22 01:00 57.06573 -4.70098 5249 ft 130 kts 330°
2026-04-22 01:01 57.07328 -4.71044 5253 ft 132 kts 330°
2026-04-22 01:01 57.08086 -4.71991 5260 ft 132 kts 330°
2026-04-22 01:01 57.08850 -4.72946 5254 ft 134 kts 330°
2026-04-22 01:01 57.09627 -4.73917 5255 ft 136 kts 330°
2026-04-22 01:02 57.10157 -4.74584 5258 ft 137 kts 330°
2026-04-22 01:02 57.10956 -4.75580 5262 ft 139 kts 330°
2026-04-22 01:02 57.12016 -4.76913 5266 ft 140 kts 331°
2026-04-22 01:02 57.12549 -4.77583 5267 ft 140 kts 331°
2026-04-22 01:03 57.13358 -4.78598 5270 ft 141 kts 330°
2026-04-22 01:03 57.14168 -4.79614 5267 ft 140 kts 331°
2026-04-22 01:03 57.14971 -4.80620 5269 ft 140 kts 331°
2026-04-22 01:03 57.15773 -4.81630 5265 ft 139 kts 331°
2026-04-22 01:04 57.16568 -4.82626 5264 ft 138 kts 331°
2026-04-22 01:04 57.17358 -4.83620 5265 ft 137 kts 331°
2026-04-22 01:04 57.18147 -4.84611 5268 ft 137 kts 330°
2026-04-22 01:04 57.18936 -4.85609 5268 ft 138 kts 330°
2026-04-22 01:05 57.19732 -4.86610 5268 ft 139 kts 331°
2026-04-22 01:05 57.20538 -4.87621 5268 ft 140 kts 331°
2026-04-22 01:05 57.21338 -4.88635 5269 ft 140 kts 331°
2026-04-22 01:05 57.22141 -4.89647 5270 ft 140 kts 331°
2026-04-22 01:06 57.22946 -4.90662 5271 ft 141 kts 330°
2026-04-22 01:06 57.23746 -4.91676 5274 ft 137 kts 331°
2026-04-22 01:06 57.24505 -4.92640 5375 ft 129 kts 330°
2026-04-22 01:06 57.25246 -4.93581 5470 ft 129 kts 330°
2026-04-22 01:07 57.25988 -4.94517 5567 ft 130 kts 330°
2026-04-22 01:07 57.26736 -4.95467 5667 ft 131 kts 331°
2026-04-22 01:07 57.27477 -4.96400 5767 ft 129 kts 331°
2026-04-22 01:07 57.28221 -4.97352 5872 ft 132 kts 331°
2026-04-22 01:08 57.28974 -4.98303 5972 ft 131 kts 330°
2026-04-22 01:08 57.29730 -4.99232 6086 ft 130 kts 328°
2026-04-22 01:08 57.30467 -5.00190 6179 ft 129 kts 329°
2026-04-22 01:08 57.31193 -5.01110 6268 ft 124 kts 328°
2026-04-22 01:09 57.31891 -5.02010 6367 ft 121 kts 328°
2026-04-22 01:09 57.32585 -5.02888 6470 ft 121 kts 328°
2026-04-22 01:09 57.33277 -5.03774 6570 ft 121 kts 330°
2026-04-22 01:09 57.33966 -5.04641 6678 ft 122 kts 329°
2026-04-22 01:10 57.34675 -5.05548 6791 ft 125 kts 329°
2026-04-22 01:10 57.35402 -5.06463 6902 ft 127 kts 329°
2026-04-22 01:10 57.36124 -5.07381 7001 ft 124 kts 329°
2026-04-22 01:10 57.36834 -5.08282 7102 ft 125 kts 329°
2026-04-22 01:11 57.37551 -5.09195 7198 ft 126 kts 328°
2026-04-22 01:11 57.38269 -5.10115 7296 ft 125 kts 327°
2026-04-22 01:11 57.38983 -5.11031 7390 ft 124 kts 329°
2026-04-22 01:11 57.39683 -5.11936 7486 ft 122 kts 328°
2026-04-22 01:12 57.40383 -5.12824 7584 ft 122 kts 328°
2026-04-22 01:12 57.41081 -5.13722 7680 ft 122 kts 329°
2026-04-22 01:12 57.41783 -5.14618 7780 ft 123 kts 329°
2026-04-22 01:12 57.42489 -5.15514 7880 ft 123 kts 328°
2026-04-22 01:13 57.43188 -5.16415 7979 ft 122 kts 328°
2026-04-22 01:13 57.43889 -5.17300 8068 ft 122 kts 328°
2026-04-22 01:13 57.44593 -5.18210 8146 ft 124 kts 328°
2026-04-22 01:13 57.45300 -5.19113 8220 ft 123 kts 328°
2026-04-22 01:14 57.45983 -5.20007 8284 ft 115 kts 328°
2026-04-22 01:14 57.46639 -5.20853 8354 ft 116 kts 329°
2026-04-22 01:14 57.47325 -5.21735 8436 ft 124 kts 329°
2026-04-22 01:14 57.48056 -5.22652 8530 ft 133 kts 330°
2026-04-22 01:15 57.48842 -5.23645 8584 ft 141 kts 328°
2026-04-22 01:15 57.49666 -5.24699 8600 ft 146 kts 328°
2026-04-22 01:15 57.50515 -5.25797 8610 ft 151 kts 327°
2026-04-22 01:15 57.51386 -5.26918 8596 ft 152 kts 327°
2026-04-22 01:16 57.52253 -5.28042 8572 ft 152 kts 327°
2026-04-22 01:16 57.53131 -5.29163 8542 ft 154 kts 328°
2026-04-22 01:16 57.54008 -5.30299 8549 ft 153 kts 329°
2026-04-22 01:16 57.54880 -5.31423 8572 ft 152 kts 327°
2026-04-22 01:17 57.55749 -5.32546 8588 ft 152 kts 328°
2026-04-22 01:17 57.56617 -5.33668 8588 ft 152 kts 328°
2026-04-22 01:17 57.57490 -5.34791 8589 ft 153 kts 327°
2026-04-22 01:17 57.58364 -5.35924 8593 ft 153 kts 327°
2026-04-22 01:18 57.59241 -5.37057 8599 ft 154 kts 327°
2026-04-22 01:18 57.60120 -5.38198 8597 ft 153 kts 328°
2026-04-22 01:18 57.60995 -5.39329 8597 ft 153 kts 327°
2026-04-22 01:18 57.61872 -5.40468 8594 ft 153 kts 328°
2026-04-22 01:19 57.62734 -5.41583 8593 ft 152 kts 327°
2026-04-22 01:19 57.63604 -5.42711 8596 ft 153 kts 327°
2026-04-22 01:19 57.64476 -5.43846 8597 ft 154 kts 327°
2026-04-22 01:19 57.65367 -5.45003 8598 ft 154 kts 327°
2026-04-22 01:20 57.66248 -5.46148 8598 ft 154 kts 327°
2026-04-22 01:20 57.67116 -5.47277 8598 ft 154 kts 327°
2026-04-22 01:20 57.67995 -5.48421 8598 ft 154 kts 327°
2026-04-22 01:20 57.68873 -5.49565 8597 ft 154 kts 327°
2026-04-22 01:21 57.69752 -5.50711 8597 ft 154 kts 327°
2026-04-22 01:21 57.70629 -5.51854 8597 ft 154 kts 327°
2026-04-22 01:21 57.71508 -5.53000 8597 ft 154 kts 327°
2026-04-22 01:21 57.72388 -5.54148 8597 ft 154 kts 327°
2026-04-22 01:22 57.73265 -5.55295 8600 ft 154 kts 327°
2026-04-22 01:22 57.74142 -5.56440 8599 ft 154 kts 327°
2026-04-22 01:22 57.75019 -5.57589 8600 ft 154 kts 327°
2026-04-22 01:22 57.75896 -5.58735 8593 ft 154 kts 327°
2026-04-22 01:23 57.76775 -5.59886 8594 ft 154 kts 327°
2026-04-22 01:23 57.77655 -5.61038 8594 ft 154 kts 327°
2026-04-22 01:23 57.78533 -5.62190 8594 ft 154 kts 327°
2026-04-22 01:23 57.79410 -5.63341 8593 ft 154 kts 327°
2026-04-22 01:24 57.80287 -5.64493 8594 ft 154 kts 327°
2026-04-22 01:24 57.81162 -5.65641 8594 ft 153 kts 327°
2026-04-22 01:24 57.82035 -5.66788 8594 ft 153 kts 327°
2026-04-22 01:24 57.82911 -5.67940 8593 ft 154 kts 327°
2026-04-22 01:25 57.83786 -5.69093 8597 ft 154 kts 328°
2026-04-22 01:25 57.84665 -5.70248 8596 ft 155 kts 328°
2026-04-22 01:25 57.85545 -5.71406 8597 ft 155 kts 328°
2026-04-22 01:25 57.86424 -5.72565 8597 ft 154 kts 327°
2026-04-22 01:26 57.87299 -5.73718 8596 ft 154 kts 327°
2026-04-22 01:26 57.88172 -5.74873 8595 ft 153 kts 327°
2026-04-22 01:26 57.89032 -5.76008 8597 ft 153 kts 327°
2026-04-22 01:26 57.89902 -5.77157 8594 ft 153 kts 328°
2026-04-22 01:27 57.90776 -5.78314 8597 ft 153 kts 327°
2026-04-22 01:27 57.91649 -5.79469 8596 ft 154 kts 328°
2026-04-22 01:27 57.92527 -5.80629 8595 ft 154 kts 328°
2026-04-22 01:27 57.93403 -5.81791 8597 ft 154 kts 327°
2026-04-22 01:28 57.94279 -5.82954 8595 ft 154 kts 328°
2026-04-22 01:28 57.95155 -5.84111 8597 ft 154 kts 327°
2026-04-22 01:28 57.96026 -5.85267 8597 ft 153 kts 328°
2026-04-22 01:28 57.96898 -5.86426 8597 ft 153 kts 327°
2026-04-22 01:29 57.97769 -5.87581 8599 ft 153 kts 327°
2026-04-22 01:29 57.98647 -5.88713 8600 ft 153 kts 329°
2026-04-22 01:29 57.99522 -5.89862 8600 ft 153 kts 328°
2026-04-22 01:29 58.00398 -5.91020 8601 ft 154 kts 328°
2026-04-22 01:30 58.01276 -5.92169 8605 ft 153 kts 329°
2026-04-22 01:30 58.02154 -5.93306 8604 ft 153 kts 327°
2026-04-22 01:30 58.03021 -5.94438 8606 ft 153 kts 328°
2026-04-22 01:30 58.03905 -5.95562 8605 ft 153 kts 328°
2026-04-22 01:31 58.04784 -5.96703 8609 ft 154 kts 328°
2026-04-22 01:31 58.05663 -5.97855 8611 ft 154 kts 327°
2026-04-22 01:31 58.06545 -5.98999 8607 ft 154 kts 328°
2026-04-22 01:31 58.07418 -6.00173 8609 ft 153 kts 327°
2026-04-22 01:32 58.08288 -6.01328 8608 ft 153 kts 327°
2026-04-22 01:32 58.09164 -6.02472 8610 ft 153 kts 329°
2026-04-22 01:32 58.10033 -6.03628 8610 ft 153 kts 329°
2026-04-22 01:32 58.10908 -6.04765 8610 ft 152 kts 328°
2026-04-22 01:33 58.11784 -6.05895 8612 ft 153 kts 329°
2026-04-22 01:33 58.12654 -6.07050 8612 ft 153 kts 327°
2026-04-22 01:33 58.13530 -6.08201 8612 ft 153 kts 328°
2026-04-22 01:33 58.14388 -6.09352 8612 ft 153 kts 328°
2026-04-22 01:34 58.15258 -6.10532 8613 ft 153 kts 327°
2026-04-22 01:34 58.16130 -6.11685 8614 ft 153 kts 327°
2026-04-22 01:34 58.17005 -6.12839 8613 ft 153 kts 327°
2026-04-22 01:34 58.17879 -6.13982 8614 ft 152 kts 328°
2026-04-22 01:35 58.18753 -6.15116 8614 ft 152 kts 327°
2026-04-22 01:35 58.19627 -6.16263 8613 ft 153 kts 329°
2026-04-22 01:35 58.20494 -6.17419 8618 ft 152 kts 328°
2026-04-22 01:35 58.21367 -6.18573 8616 ft 153 kts 328°
2026-04-22 01:36 58.22232 -6.19739 8615 ft 153 kts 328°
2026-04-22 01:36 58.23101 -6.20919 8611 ft 153 kts 328°
2026-04-22 01:36 58.23965 -6.22058 8610 ft 153 kts 328°
2026-04-22 01:36 58.24836 -6.23219 8609 ft 152 kts 328°
2026-04-22 01:37 58.25777 -6.24108 8596 ft 151 kts 345°
2026-04-22 01:37 58.26807 -6.24202 8580 ft 148 kts 11°
2026-04-22 01:37 58.27818 -6.23862 8583 ft 147 kts 13°
2026-04-22 01:37 58.28830 -6.23551 8585 ft 147 kts 12°
2026-04-22 01:38 58.29842 -6.23222 8582 ft 147 kts 12°
2026-04-22 01:38 58.30853 -6.22887 8581 ft 147 kts 12°
2026-04-22 01:38 58.31863 -6.22555 8583 ft 147 kts 12°
2026-04-22 01:38 58.32873 -6.22233 8584 ft 147 kts 13°
2026-04-22 01:39 58.33878 -6.21937 8582 ft 146 kts 11°
2026-04-22 01:39 58.34878 -6.21619 8582 ft 146 kts 12°
2026-04-22 01:39 58.35866 -6.21289 8585 ft 146 kts 13°
2026-04-22 01:39 58.36819 -6.20675 8567 ft 144 kts 27°
2026-04-22 01:40 58.37775 -6.20138 8578 ft 145 kts 11°
2026-04-22 01:40 58.38781 -6.20183 8619 ft 144 kts
2026-04-22 01:40 58.39782 -6.20293 8635 ft 145 kts 360°
2026-04-22 01:40 58.40794 -6.20405 8641 ft 146 kts
2026-04-22 01:41 58.41813 -6.20520 8636 ft 146 kts
2026-04-22 01:41 58.42827 -6.20628 8638 ft 146 kts
2026-04-22 01:41 58.43845 -6.20730 8638 ft 147 kts
2026-04-22 01:41 58.44864 -6.20840 8644 ft 147 kts
2026-04-22 01:42 58.45884 -6.20947 8645 ft 147 kts
2026-04-22 01:42 58.46906 -6.21046 8645 ft 147 kts
2026-04-22 01:42 58.47913 -6.21167 8646 ft 147 kts
2026-04-22 01:42 58.48953 -6.21272 8648 ft 150 kts
2026-04-22 01:43 58.49987 -6.21364 8650 ft 150 kts
2026-04-22 01:43 58.51043 -6.21488 8654 ft 154 kts 359°
2026-04-22 01:43 58.52108 -6.21617 8656 ft 152 kts 359°
2026-04-22 01:43 58.53150 -6.21738 8653 ft 148 kts
2026-04-22 01:44 58.54161 -6.21830 8647 ft 143 kts
2026-04-22 01:44 58.55148 -6.21941 8643 ft 141 kts
2026-04-22 01:44 58.56123 -6.22031 8637 ft 140 kts 360°
2026-04-22 01:44 58.57100 -6.22137 8635 ft 140 kts
2026-04-22 01:45 58.58080 -6.22241 8636 ft 142 kts
2026-04-22 01:45 58.59077 -6.22351 8640 ft 144 kts
2026-04-22 01:45 58.60086 -6.22462 8643 ft 146 kts 359°
2026-04-22 01:45 58.61103 -6.22582 8645 ft 147 kts 359°
2026-04-22 01:46 58.62126 -6.22681 8645 ft 148 kts
2026-04-22 01:46 58.63155 -6.22777 8647 ft 148 kts
2026-04-22 01:46 58.64182 -6.22892 8649 ft 148 kts
2026-04-22 01:46 58.65210 -6.23002 8648 ft 148 kts
2026-04-22 01:47 58.66226 -6.23112 8656 ft 148 kts 359°
2026-04-22 01:47 58.67256 -6.23226 8660 ft 148 kts 360°
2026-04-22 01:47 58.68286 -6.23335 8655 ft 148 kts 359°
2026-04-22 01:47 58.69317 -6.23444 8657 ft 148 kts
2026-04-22 01:48 58.70343 -6.23555 8656 ft 148 kts 358°
2026-04-22 01:48 58.71368 -6.23672 8657 ft 148 kts 360°
2026-04-22 01:48 58.72397 -6.23779 8656 ft 148 kts 360°
2026-04-22 01:48 58.73428 -6.23891 8657 ft 148 kts 359°
2026-04-22 01:49 58.74456 -6.24005 8657 ft 148 kts
2026-04-22 01:49 58.75487 -6.24110 8657 ft 148 kts 359°
2026-04-22 01:49 58.76515 -6.24213 8658 ft 148 kts
2026-04-22 01:49 58.77194 -6.24280 8657 ft 148 kts 359°
2026-04-22 01:50 58.78561 -6.24443 8653 ft 148 kts 359°
2026-04-22 01:50 58.79593 -6.24556 8655 ft 148 kts
2026-04-22 01:50 58.80288 -6.24626 8654 ft 148 kts
2026-04-22 01:50 58.81651 -6.24768 8655 ft 149 kts
2026-04-22 01:51 58.82350 -6.24835 8656 ft 149 kts
2026-04-22 01:51 58.83718 -6.25000 8657 ft 149 kts
2026-04-22 01:51 58.84420 -6.25072 8657 ft 149 kts 359°
2026-04-22 01:51 58.85439 -6.25188 8659 ft 149 kts
2026-04-22 01:52 58.86484 -6.25299 8654 ft 148 kts 359°
2026-04-22 01:52 58.87500 -6.25419 8660 ft 148 kts 360°
2026-04-22 01:52 58.88533 -6.25524 8653 ft 149 kts
2026-04-22 01:52 58.89566 -6.25631 8654 ft 148 kts 359°
2026-04-22 01:53 58.90590 -6.25756 8658 ft 147 kts
2026-04-22 01:53 58.91612 -6.25861 8658 ft 147 kts
2026-04-22 01:53 58.92631 -6.25967 8656 ft 147 kts
2026-04-22 01:53 58.93655 -6.26065 8658 ft 147 kts 359°
2026-04-22 01:54 58.94677 -6.26190 8655 ft 147 kts
2026-04-22 01:54 58.95701 -6.26295 8655 ft 147 kts
2026-04-22 01:54 58.96722 -6.26411 8655 ft 147 kts
2026-04-22 01:54 58.97742 -6.26505 8655 ft 147 kts
2026-04-22 01:55 58.98765 -6.26615 8654 ft 147 kts
2026-04-22 01:55 58.99789 -6.26747 8660 ft 147 kts
2026-04-22 01:55 59.00814 -6.26863 8662 ft 148 kts
2026-04-22 01:55 59.01838 -6.26974 8661 ft 147 kts
2026-04-22 01:56 59.02861 -6.27076 8658 ft 148 kts 360°
2026-04-22 01:56 59.03887 -6.27195 8657 ft 148 kts
2026-04-22 01:56 59.04915 -6.27308 8657 ft 148 kts 360°
2026-04-22 01:56 59.05928 -6.27422 8657 ft 148 kts 359°
2026-04-22 01:57 59.06952 -6.27542 8659 ft 147 kts
2026-04-22 01:57 59.07974 -6.27645 8658 ft 147 kts 359°
2026-04-22 01:57 59.08999 -6.27749 8659 ft 147 kts
2026-04-22 01:57 59.10022 -6.27863 8657 ft 148 kts 359°
2026-04-22 01:58 59.11048 -6.27974 8662 ft 148 kts
2026-04-22 01:58 59.12073 -6.28090 8662 ft 147 kts
2026-04-22 01:58 59.13096 -6.28206 8662 ft 147 kts 360°
2026-04-22 01:58 59.14118 -6.28321 8661 ft 147 kts 360°
2026-04-22 01:59 59.15141 -6.28434 8661 ft 147 kts 360°
2026-04-22 01:59 59.16164 -6.28548 8662 ft 147 kts
2026-04-22 01:59 59.17187 -6.28648 8660 ft 147 kts
2026-04-22 01:59 59.18202 -6.28769 8660 ft 146 kts
2026-04-22 02:00 59.19215 -6.28886 8659 ft 146 kts
2026-04-22 02:00 59.20228 -6.28995 8658 ft 146 kts 360°
2026-04-22 02:00 59.21244 -6.29108 8659 ft 146 kts
2026-04-22 02:00 59.22256 -6.29189 8655 ft 145 kts
2026-04-22 02:01 59.23256 -6.29033 8657 ft 144 kts
2026-04-22 02:01 59.24243 -6.28863 8657 ft 144 kts
2026-04-22 02:01 59.25254 -6.28705 8659 ft 144 kts
2026-04-22 02:01 59.26247 -6.28553 8660 ft 145 kts
2026-04-22 02:02 59.27249 -6.28388 8657 ft 144 kts
2026-04-22 02:02 59.28248 -6.28242 8657 ft 144 kts
2026-04-22 02:02 59.29247 -6.28089 8658 ft 144 kts
2026-04-22 02:02 59.30244 -6.27935 8655 ft 144 kts
2026-04-22 02:03 59.31244 -6.27776 8656 ft 144 kts
2026-04-22 02:03 59.32242 -6.27613 8655 ft 144 kts
2026-04-22 02:03 59.33239 -6.27461 8657 ft 144 kts
2026-04-22 02:03 59.34234 -6.27303 8661 ft 143 kts
2026-04-22 02:04 59.36234 -6.26992 8666 ft 144 kts
2026-04-22 02:04 59.37235 -6.26831 8664 ft 144 kts
2026-04-22 02:04 59.38234 -6.26679 8667 ft 144 kts
2026-04-22 02:05 59.39231 -6.26518 8663 ft 144 kts
2026-04-22 02:05 59.40232 -6.26360 8661 ft 145 kts
2026-04-22 02:05 59.41236 -6.26207 8663 ft 144 kts
2026-04-22 02:05 59.42241 -6.26045 8664 ft 144 kts
2026-04-22 02:06 59.43241 -6.25891 8664 ft 144 kts
2026-04-22 02:06 59.44241 -6.25739 8664 ft 144 kts
2026-04-22 02:06 59.45228 -6.25581 8658 ft 144 kts
2026-04-22 02:06 59.46230 -6.25421 8663 ft 144 kts
2026-04-22 02:07 59.47229 -6.25263 8664 ft 144 kts
2026-04-22 02:07 59.48226 -6.25104 8661 ft 144 kts
2026-04-22 02:07 59.49223 -6.24948 8661 ft 144 kts
2026-04-22 02:07 59.50224 -6.24790 8660 ft 144 kts
2026-04-22 02:08 59.51223 -6.24632 8656 ft 144 kts
2026-04-22 02:08 59.52221 -6.24473 8657 ft 144 kts
2026-04-22 02:08 59.53220 -6.24315 8656 ft 144 kts
2026-04-22 02:08 59.54218 -6.24159 8656 ft 144 kts
2026-04-22 02:09 59.55215 -6.23998 8662 ft 144 kts
2026-04-22 02:09 59.56215 -6.23841 8661 ft 144 kts
2026-04-22 02:09 59.57213 -6.23683 8666 ft 143 kts
2026-04-22 02:09 59.58210 -6.23522 8662 ft 144 kts
2026-04-22 02:10 59.59193 -6.23367 8665 ft 144 kts
2026-04-22 02:10 59.60189 -6.23207 8663 ft 144 kts
2026-04-22 02:10 59.61184 -6.23050 8661 ft 143 kts
2026-04-22 02:10 59.62177 -6.22892 8662 ft 143 kts
2026-04-22 02:11 59.63167 -6.22733 8658 ft 143 kts
2026-04-22 02:11 59.64159 -6.22578 8658 ft 143 kts
2026-04-22 02:11 59.65154 -6.22417 8657 ft 143 kts
2026-04-22 02:11 59.66146 -6.22260 8658 ft 143 kts
2026-04-22 02:12 59.67140 -6.22101 8660 ft 143 kts
2026-04-22 02:12 59.68135 -6.21940 8660 ft 143 kts
2026-04-22 02:12 59.69128 -6.21783 8663 ft 143 kts
2026-04-22 02:12 59.70123 -6.21624 8662 ft 144 kts
2026-04-22 02:13 59.71118 -6.21464 8664 ft 143 kts
2026-04-22 02:13 59.72112 -6.21305 8671 ft 143 kts
2026-04-22 02:13 59.73105 -6.21144 8670 ft 143 kts
2026-04-22 02:13 59.74101 -6.20985 8666 ft 144 kts
2026-04-22 02:14 59.75099 -6.20825 8663 ft 144 kts
2026-04-22 02:14 59.76096 -6.20666 8661 ft 144 kts
2026-04-22 02:14 59.77095 -6.20505 8661 ft 144 kts
2026-04-22 02:14 59.78092 -6.20344 8661 ft 144 kts
2026-04-22 02:15 59.79090 -6.20184 8658 ft 144 kts
2026-04-22 02:15 59.80086 -6.20024 8661 ft 144 kts
2026-04-22 02:15 59.81084 -6.19863 8661 ft 144 kts
2026-04-22 02:15 59.82083 -6.19702 8664 ft 144 kts
2026-04-22 02:16 59.83080 -6.19542 8661 ft 144 kts
2026-04-22 02:16 59.84068 -6.19382 8664 ft 144 kts
2026-04-22 02:16 59.85069 -6.19221 8661 ft 144 kts
2026-04-22 02:16 59.86066 -6.19059 8661 ft 144 kts
2026-04-22 02:17 59.87065 -6.18898 8663 ft 144 kts
2026-04-22 02:17 59.88063 -6.18736 8662 ft 144 kts
2026-04-22 02:17 59.89059 -6.18575 8662 ft 144 kts
2026-04-22 02:17 59.90056 -6.18414 8662 ft 144 kts
2026-04-22 02:18 59.91056 -6.18252 8664 ft 144 kts
2026-04-22 02:18 59.92052 -6.18091 8669 ft 143 kts
2026-04-22 02:18 59.93047 -6.17929 8668 ft 144 kts
2026-04-22 02:18 59.94043 -6.17767 8664 ft 144 kts
2026-04-22 02:19 59.95040 -6.17606 8662 ft 144 kts
2026-04-22 02:19 59.96037 -6.17443 8662 ft 144 kts
2026-04-22 02:19 59.97032 -6.17282 8662 ft 144 kts
2026-04-22 02:19 59.98028 -6.17119 8662 ft 144 kts
2026-04-22 02:20 59.99023 -6.16958 8662 ft 144 kts
2026-04-22 02:20 60.00020 -6.16796 8661 ft 144 kts
2026-04-22 02:20 60.01016 -6.16633 8665 ft 144 kts
2026-04-22 02:20 60.01998 -6.16472 8664 ft 143 kts
2026-04-22 02:21 60.02995 -6.16310 8662 ft 143 kts
2026-04-22 02:21 60.03991 -6.16147 8657 ft 144 kts
2026-04-22 02:21 60.04989 -6.15983 8657 ft 144 kts
2026-04-22 02:21 60.05988 -6.15821 8657 ft 144 kts
2026-04-22 02:22 60.06988 -6.15656 8658 ft 144 kts
2026-04-22 02:22 60.07985 -6.15495 8658 ft 144 kts
2026-04-22 02:22 60.08987 -6.15330 8663 ft 144 kts
2026-04-22 02:22 60.09988 -6.15166 8661 ft 144 kts
2026-04-22 02:23 60.10989 -6.15002 8656 ft 144 kts
2026-04-22 02:23 60.11990 -6.14837 8656 ft 144 kts
2026-04-22 02:23 60.12990 -6.14673 8656 ft 144 kts
2026-04-22 02:23 60.13991 -6.14509 8656 ft 144 kts
2026-04-22 02:24 60.14988 -6.14345 8662 ft 144 kts
2026-04-22 02:24 60.15987 -6.14180 8665 ft 144 kts
2026-04-22 02:24 60.16989 -6.14016 8665 ft 144 kts
2026-04-22 02:24 60.17986 -6.13851 8661 ft 144 kts
2026-04-22 02:25 60.18988 -6.13687 8662 ft 144 kts
2026-04-22 02:25 60.19987 -6.13522 8661 ft 144 kts
2026-04-22 02:25 60.20985 -6.13357 8662 ft 144 kts
2026-04-22 02:25 60.21973 -6.13194 8662 ft 144 kts
2026-04-22 02:26 60.22973 -6.13029 8661 ft 144 kts
2026-04-22 02:26 60.23973 -6.12863 8659 ft 144 kts
2026-04-22 02:26 60.24975 -6.12698 8659 ft 144 kts
2026-04-22 02:26 60.25976 -6.12532 8660 ft 144 kts
2026-04-22 02:27 60.26978 -6.12365 8662 ft 144 kts
2026-04-22 02:27 60.27980 -6.12200 8665 ft 144 kts
2026-04-22 02:27 60.28984 -6.12033 8662 ft 144 kts
2026-04-22 02:27 60.29985 -6.11868 8662 ft 144 kts
2026-04-22 02:28 60.30985 -6.11702 8662 ft 144 kts
2026-04-22 02:28 60.31986 -6.11535 8662 ft 144 kts
2026-04-22 02:28 60.32987 -6.11368 8664 ft 144 kts
2026-04-22 02:28 60.33972 -6.11205 8663 ft 144 kts
2026-04-22 02:29 60.34971 -6.11040 8662 ft 144 kts
2026-04-22 02:29 60.35968 -6.10873 8657 ft 144 kts
2026-04-22 02:29 60.36963 -6.10708 8657 ft 144 kts
2026-04-22 02:29 60.37963 -6.10541 8659 ft 144 kts
2026-04-22 02:30 60.38959 -6.10374 8656 ft 144 kts
2026-04-22 02:30 60.39956 -6.10209 8656 ft 144 kts
2026-04-22 02:30 60.40953 -6.10041 8659 ft 144 kts
2026-04-22 02:30 60.41949 -6.09876 8658 ft 144 kts
2026-04-22 02:31 60.42948 -6.09708 8658 ft 144 kts
2026-04-22 02:31 60.43945 -6.09541 8657 ft 144 kts
2026-04-22 02:31 60.44944 -6.09374 8658 ft 144 kts
2026-04-22 02:31 60.45942 -6.09207 8658 ft 144 kts
2026-04-22 02:32 60.46929 -6.09042 8655 ft 144 kts
2026-04-22 02:32 60.47928 -6.08873 8662 ft 144 kts
2026-04-22 02:32 60.48927 -6.08706 8658 ft 144 kts
2026-04-22 02:32 60.49926 -6.08538 8662 ft 144 kts
2026-04-22 02:33 60.50929 -6.08370 8664 ft 144 kts
2026-04-22 02:33 60.51929 -6.08202 8664 ft 144 kts
2026-04-22 02:33 60.52929 -6.08034 8664 ft 144 kts
2026-04-22 02:33 60.53928 -6.07865 8666 ft 144 kts
2026-04-22 02:34 60.54932 -6.07696 8664 ft 144 kts
2026-04-22 02:34 60.55929 -6.07527 8664 ft 144 kts
2026-04-22 02:34 60.56929 -6.07360 8664 ft 144 kts
2026-04-22 02:34 60.57929 -6.07190 8664 ft 144 kts
2026-04-22 02:35 60.58918 -6.07024 8663 ft 144 kts
2026-04-22 02:35 60.59920 -6.06855 8664 ft 144 kts
2026-04-22 02:35 60.60920 -6.06685 8663 ft 144 kts
2026-04-22 02:35 60.61918 -6.06516 8666 ft 144 kts
2026-04-22 02:36 60.62915 -6.06347 8665 ft 144 kts
2026-04-22 02:36 60.63911 -6.06179 8665 ft 144 kts
2026-04-22 02:36 60.64909 -6.06010 8668 ft 143 kts
2026-04-22 02:36 60.65903 -6.05840 8667 ft 143 kts
2026-04-22 02:37 60.66895 -6.05673 8667 ft 143 kts
2026-04-22 02:37 60.67890 -6.05504 8664 ft 143 kts
2026-04-22 02:37 60.68548 -6.05392 8664 ft 143 kts
2026-04-22 02:37 60.69862 -6.05169 8664 ft 143 kts
2026-04-22 02:38 60.70854 -6.04999 8664 ft 143 kts
2026-04-22 02:38 60.71844 -6.04831 8663 ft 143 kts
2026-04-22 02:38 60.72835 -6.04663 8663 ft 143 kts
2026-04-22 02:38 60.73827 -6.04493 8663 ft 143 kts
2026-04-22 02:39 60.74498 -6.04379 8667 ft 143 kts
2026-04-22 02:39 60.75813 -6.04155 8666 ft 143 kts
2026-04-22 02:39 60.76472 -6.04042 8666 ft 143 kts
2026-04-22 02:39 60.77464 -6.03873 8667 ft 143 kts
2026-04-22 02:40 60.78460 -6.03702 8666 ft 143 kts
2026-04-22 02:40 60.79455 -6.03532 8665 ft 143 kts
2026-04-22 02:40 60.80448 -6.03362 8666 ft 143 kts
2026-04-22 02:40 60.81441 -6.03192 8665 ft 143 kts
2026-04-22 02:41 60.82434 -6.03022 8662 ft 143 kts
2026-04-22 02:41 60.83427 -6.02851 8666 ft 143 kts
2026-04-22 02:41 60.84419 -6.02681 8665 ft 143 kts
2026-04-22 02:41 60.85411 -6.02512 8665 ft 143 kts
2026-04-22 02:42 60.86402 -6.02341 8660 ft 143 kts
2026-04-22 02:42 60.87392 -6.02170 8660 ft 143 kts
2026-04-22 02:42 60.88382 -6.02001 8660 ft 143 kts
2026-04-22 02:42 60.89372 -6.01830 8660 ft 143 kts
2026-04-22 02:43 60.90349 -6.01661 8660 ft 143 kts
2026-04-22 02:43 60.91338 -6.01491 8659 ft 142 kts
2026-04-22 02:43 60.92324 -6.01321 8659 ft 142 kts
2026-04-22 02:43 60.93308 -6.01150 8659 ft 142 kts
2026-04-22 02:44 60.94292 -6.00982 8659 ft 142 kts
2026-04-22 02:44 60.95276 -6.00811 8659 ft 142 kts
2026-04-22 02:44 60.96259 -6.00641 8659 ft 142 kts
2026-04-22 02:44 60.97241 -6.00472 8659 ft 142 kts
2026-04-22 02:45 60.98225 -6.00301 8654 ft 142 kts
2026-04-22 02:45 60.99205 -6.00132 8654 ft 142 kts
2026-04-22 02:45 61.00191 -6.00060 8642 ft 143 kts 356°
2026-04-22 02:45 61.01149 -6.00626 8633 ft 144 kts 342°
2026-04-22 02:46 61.02093 -6.01293 8633 ft 143 kts 344°
2026-04-22 02:46 61.03043 -6.01912 8636 ft 143 kts 345°
2026-04-22 02:46 61.03994 -6.02516 8634 ft 143 kts 345°
2026-04-22 02:46 61.04945 -6.03120 8634 ft 143 kts 345°
2026-04-22 02:47 61.05897 -6.03723 8636 ft 143 kts 345°
2026-04-22 02:47 61.06848 -6.04326 8636 ft 143 kts 345°
2026-04-22 02:47 61.07799 -6.04929 8636 ft 143 kts 345°
2026-04-22 02:47 61.08739 -6.05525 8636 ft 143 kts 345°
2026-04-22 02:48 61.09689 -6.06130 8635 ft 143 kts 345°
2026-04-22 02:48 61.10640 -6.06733 8635 ft 143 kts 345°
2026-04-22 02:48 61.11589 -6.07338 8635 ft 143 kts 345°
2026-04-22 02:48 61.12537 -6.07940 8636 ft 143 kts 345°
2026-04-22 02:49 61.13487 -6.08546 8639 ft 143 kts 345°
2026-04-22 02:49 61.14437 -6.09151 8639 ft 143 kts 345°
2026-04-22 02:49 61.15387 -6.09758 8637 ft 143 kts 345°
2026-04-22 02:49 61.16338 -6.10363 8637 ft 143 kts 345°
2026-04-22 02:50 61.17287 -6.10971 8637 ft 143 kts 345°
2026-04-22 02:50 61.18238 -6.11577 8637 ft 143 kts 345°
2026-04-22 02:50 61.19188 -6.12184 8637 ft 143 kts 345°
2026-04-22 02:50 61.20139 -6.12792 8637 ft 143 kts 345°
2026-04-22 02:51 61.21088 -6.13400 8633 ft 143 kts 345°
2026-04-22 02:51 61.22036 -6.14008 8635 ft 142 kts 345°
2026-04-22 02:51 61.22983 -6.14615 8635 ft 142 kts 345°
2026-04-22 02:51 61.23931 -6.15223 8634 ft 142 kts 345°
2026-04-22 02:52 61.24876 -6.15828 8634 ft 142 kts 345°
2026-04-22 02:52 61.25822 -6.16437 8634 ft 142 kts 345°
2026-04-22 02:52 61.26768 -6.17044 8633 ft 142 kts 345°
2026-04-22 02:52 61.27713 -6.17652 8632 ft 142 kts 345°
2026-04-22 02:53 61.28658 -6.18261 8636 ft 142 kts 345°
2026-04-22 02:53 61.29605 -6.18869 8638 ft 142 kts 345°
2026-04-22 02:53 61.30549 -6.19478 8638 ft 142 kts 345°
2026-04-22 02:53 61.31494 -6.20086 8635 ft 142 kts 345°
2026-04-22 02:54 61.32437 -6.20695 8632 ft 142 kts 345°
2026-04-22 02:54 61.33380 -6.21305 8632 ft 142 kts 345°
2026-04-22 02:54 61.34324 -6.21913 8632 ft 142 kts 345°
2026-04-22 02:54 61.35267 -6.22522 8632 ft 142 kts 345°
2026-04-22 02:55 61.36211 -6.23133 8632 ft 142 kts 345°
2026-04-22 02:55 61.37154 -6.23743 8630 ft 142 kts 345°
2026-04-22 02:55 61.38097 -6.24354 8631 ft 142 kts 345°
2026-04-22 02:55 61.39042 -6.24966 8630 ft 142 kts 345°
2026-04-22 02:56 61.39985 -6.25577 8630 ft 142 kts 344°
2026-04-22 02:56 61.40928 -6.26188 8630 ft 142 kts 344°
2026-04-22 02:56 61.41871 -6.26801 8629 ft 142 kts 345°
2026-04-22 02:56 61.42801 -6.27406 8629 ft 142 kts 344°
2026-04-22 02:57 61.43744 -6.28017 8632 ft 142 kts 344°
2026-04-22 02:57 61.44686 -6.28631 8632 ft 142 kts 345°
2026-04-22 02:57 61.45628 -6.29243 8632 ft 142 kts 344°
2026-04-22 02:57 61.46569 -6.29855 8631 ft 142 kts 344°
2026-04-22 02:58 61.47511 -6.30470 8632 ft 142 kts 344°
2026-04-22 02:58 61.48454 -6.31084 8632 ft 142 kts 344°
2026-04-22 02:58 61.49398 -6.31701 8632 ft 142 kts 344°
2026-04-22 02:58 61.50342 -6.32316 8632 ft 142 kts 344°
2026-04-22 02:59 61.51289 -6.32935 8630 ft 142 kts 344°
2026-04-22 02:59 61.52233 -6.33553 8631 ft 142 kts 344°
2026-04-22 02:59 61.53178 -6.34170 8631 ft 142 kts 344°
2026-04-22 02:59 61.54122 -6.34788 8631 ft 142 kts 344°
2026-04-22 03:00 61.55072 -6.35410 8581 ft 145 kts 344°
2026-04-22 03:00 61.56050 -6.36047 8480 ft 149 kts 344°
2026-04-22 03:00 61.57045 -6.36699 8375 ft 151 kts 344°
2026-04-22 03:00 61.58050 -6.37358 8276 ft 152 kts 344°
2026-04-22 03:01 61.59058 -6.38021 8177 ft 152 kts 344°
2026-04-22 03:01 61.60068 -6.38684 8078 ft 152 kts 344°
2026-04-22 03:01 61.61080 -6.39349 7975 ft 152 kts 344°
2026-04-22 03:01 61.62093 -6.40016 7877 ft 152 kts 344°
2026-04-22 03:02 61.63104 -6.40682 7777 ft 152 kts 344°
2026-04-22 03:02 61.64115 -6.41348 7677 ft 152 kts 344°
2026-04-22 03:02 61.65126 -6.42015 7577 ft 152 kts 344°
2026-04-22 03:02 61.66120 -6.42670 7479 ft 152 kts 344°
2026-04-22 03:03 61.67125 -6.43334 7377 ft 151 kts 343°
2026-04-22 03:03 61.68130 -6.43997 7277 ft 151 kts 343°
2026-04-22 03:03 61.69133 -6.44662 7179 ft 151 kts 343°
2026-04-22 03:03 61.70138 -6.45325 7077 ft 151 kts 343°
2026-04-22 03:04 61.71141 -6.45990 6983 ft 151 kts 343°
2026-04-22 03:04 61.72143 -6.46653 6877 ft 151 kts 343°
2026-04-22 03:04 61.73142 -6.47316 6772 ft 150 kts 343°
2026-04-22 03:04 61.74126 -6.47966 6663 ft 140 kts 343°
2026-04-22 03:05 61.74998 -6.48546 6538 ft 124 kts 343°
2026-04-22 03:05 61.75777 -6.49067 6406 ft 111 kts 343°
2026-04-22 03:05 61.76482 -6.49540 6276 ft 102 kts 343°
2026-04-22 03:05 61.77134 -6.49979 6150 ft 97 kts 342°
2026-04-22 03:06 61.77784 -6.50421 6027 ft 100 kts 343°
2026-04-22 03:06 61.78458 -6.50866 5922 ft 103 kts 343°
2026-04-22 03:06 61.79152 -6.51324 5830 ft 106 kts 343°
2026-04-22 03:06 61.79858 -6.51792 5735 ft 107 kts 343°
2026-04-22 03:07 61.80571 -6.52266 5642 ft 108 kts 343°
2026-04-22 03:07 61.81288 -6.52742 5544 ft 108 kts 343°
2026-04-22 03:07 61.82010 -6.53221 5446 ft 109 kts 343°
2026-04-22 03:07 61.82723 -6.53698 5346 ft 109 kts 343°
2026-04-22 03:08 61.83447 -6.54180 5238 ft 109 kts 343°
2026-04-22 03:08 61.84172 -6.54664 5128 ft 109 kts 342°
2026-04-22 03:08 61.84900 -6.55149 5029 ft 110 kts 342°
2026-04-22 03:08 61.85629 -6.55607 4923 ft 109 kts 344°
2026-04-22 03:09 61.86362 -6.56024 4818 ft 109 kts 345°
2026-04-22 03:09 61.87095 -6.56437 4714 ft 109 kts 345°
2026-04-22 03:09 61.87862 -6.56862 4470 ft 119 kts 345°
2026-04-22 03:09 61.88682 -6.57314 4231 ft 124 kts 345°
2026-04-22 03:10 61.89472 -6.58028 3973 ft 128 kts 326°
2026-04-22 03:10 61.90029 -6.59502 3765 ft 127 kts 296°
2026-04-22 03:10 61.90171 -6.61169 3927 ft 112 kts 279°
2026-04-22 03:10 61.90293 -6.62797 4039 ft 111 kts 285°
2026-04-22 03:11 61.90598 -6.64280 4154 ft 109 kts 297°
2026-04-22 03:11 61.90919 -6.65728 4279 ft 108 kts 298°
2026-04-22 03:11 61.91255 -6.67149 4390 ft 108 kts 299°
2026-04-22 03:11 61.91599 -6.68573 4494 ft 109 kts 300°
2026-04-22 03:12 61.91953 -6.69989 4581 ft 109 kts 301°
2026-04-22 03:12 61.92724 -6.73051 4363 ft 117 kts 300°
2026-04-22 03:12 61.93086 -6.74494 4249 ft 105 kts 300°
2026-04-22 03:13 61.93412 -6.75806 4128 ft 96 kts 300°
2026-04-22 03:13 61.93720 -6.77048 4014 ft 100 kts 298°
2026-04-22 03:13 61.94062 -6.78410 4008 ft 107 kts 301°
2026-04-22 03:13 61.94418 -6.79808 4018 ft 108 kts 300°
2026-04-22 03:14 61.94770 -6.81219 4020 ft 108 kts 300°
2026-04-22 03:14 61.95120 -6.82627 4022 ft 108 kts 300°
2026-04-22 03:14 61.95471 -6.84035 4022 ft 108 kts 300°
2026-04-22 03:14 61.95821 -6.85442 4022 ft 108 kts 300°
2026-04-22 03:15 61.96177 -6.86842 4024 ft 107 kts 300°
2026-04-22 03:15 61.96522 -6.88227 4025 ft 107 kts 300°
2026-04-22 03:15 61.96871 -6.89627 4025 ft 107 kts 299°
2026-04-22 03:15 61.97220 -6.91031 4025 ft 107 kts 300°
2026-04-22 03:16 61.97570 -6.92439 4023 ft 108 kts 300°
2026-04-22 03:16 61.97924 -6.93846 4024 ft 108 kts 300°
2026-04-22 03:16 61.98267 -6.95270 4014 ft 109 kts 298°
2026-04-22 03:16 61.98574 -6.96735 4000 ft 110 kts 296°
2026-04-22 03:17 61.98887 -6.98227 3867 ft 112 kts 297°
2026-04-22 03:17 61.99241 -6.99686 3464 ft 118 kts 299°
2026-04-22 03:17 61.99676 -7.01151 3102 ft 112 kts 309°
2026-04-22 03:17 62.00109 -7.02397 2932 ft 100 kts 309°
2026-04-22 03:18 62.00526 -7.03538 2827 ft 101 kts 309°
2026-04-22 03:18 62.00926 -7.04816 2880 ft 105 kts 302°
2026-04-22 03:18 62.01232 -7.06240 2826 ft 109 kts 292°
2026-04-22 03:18 62.01437 -7.07806 2592 ft 109 kts 288°
2026-04-22 03:19 62.01674 -7.09311 2277 ft 104 kts 292°
2026-04-22 03:19 62.01965 -7.10601 2088 ft 93 kts 300°
2026-04-22 03:19 62.02312 -7.11725 1905 ft 87 kts 307°
2026-04-22 03:19 62.02635 -7.12799 1805 ft 85 kts 302°
2026-04-22 03:20 62.02895 -7.13919 1743 ft 85 kts 294°
2026-04-22 03:20 62.03166 -7.15028 1627 ft 84 kts 300°
2026-04-22 03:20 62.03459 -7.16128 1481 ft 86 kts 299°
2026-04-22 03:20 62.03731 -7.17261 1372 ft 86 kts 297°
2026-04-22 03:21 62.04011 -7.18374 1244 ft 86 kts 300°
2026-04-22 03:21 62.04302 -7.19476 1090 ft 86 kts 300°
2026-04-22 03:21 62.04580 -7.20585 986 ft 84 kts 297°
2026-04-22 03:21 62.04853 -7.21678 840 ft 83 kts 301°
2026-04-22 03:22 62.05103 -7.22742 710 ft 78 kts 297°
2026-04-22 03:22 62.05360 -7.23749 575 ft 75 kts 296°
2026-04-22 03:22 62.05597 -7.24709 436 ft 71 kts 301°
2026-04-22 03:22 62.05829 -7.25597 351 ft 66 kts 299°
2026-04-22 03:23 62.06034 -7.26422 267 ft 61 kts 295°
2026-04-22 03:23 62.06212 -7.27162 273 ft 51 kts 302°
2026-04-22 03:23 62.06352 -7.27694 287 ft 32 kts 298°
2026-04-22 03:23 62.06438 -7.28038 284 ft 13 kts 298°
2026-04-22 03:24 62.06469 -7.28141 282 ft 7 kts 328°
2026-04-22 03:24 62.06519 -7.28130 280 ft 8 kts 20°
2026-04-22 03:24 62.06551 -7.28102 281 ft 0 kts 18°
2026-04-22 03:25 62.06560 -7.28096 282 ft 5 kts 13°
2026-04-22 03:25 62.06604 -7.28082 283 ft 6 kts 29°
2026-04-22 03:25 62.06638 -7.27999 283 ft 10 kts 82°
2026-04-22 03:25 62.06639 -7.27945 283 ft 5 kts 96°
2026-04-22 03:26 62.06590 -7.27725 283 ft 17 kts 118°
2026-04-22 03:26 62.06571 -7.27650 283 ft 0 kts 83°
2026-04-22 03:26 62.06577 -7.27643 283 ft 4 kts 16°
2026-04-22 03:26 62.06587 -7.27632 283 ft 1 kts 30°
2026-04-22 03:27 62.06591 -7.27627 283 ft 1 kts 28°
2026-04-22 03:37 62.06596 -7.27627 283 ft 3 kts 341°
2026-04-22 03:37 62.06579 -7.27655 283 ft 0 kts 205°
2026-04-22 03:38 62.06583 -7.27702 283 ft 8 kts 298°
2026-04-22 03:38 62.06621 -7.27849 283 ft 12 kts 298°
2026-04-22 03:38 62.06649 -7.27998 283 ft 12 kts 283°
2026-04-22 03:39 62.06626 -7.28091 283 ft 7 kts 185°
2026-04-22 03:39 62.06561 -7.28099 282 ft 6 kts 190°
2026-04-22 03:39 62.06559 -7.28100 282 ft 0 kts 190°
2026-04-22 03:40 62.06516 -7.28134 280 ft 12 kts 202°
2026-04-22 03:40 62.06446 -7.28068 284 ft 16 kts 120°
2026-04-22 03:41 62.06386 -7.27831 293 ft 21 kts 118°
2026-04-22 03:41 62.06306 -7.27508 284 ft 23 kts 117°
2026-04-22 03:41 62.06218 -7.27151 272 ft 32 kts 117°
2026-04-22 03:41 62.06123 -7.26770 264 ft 28 kts 118°
2026-04-22 03:42 62.06036 -7.26425 250 ft 25 kts 117°
2026-04-22 03:42 62.05967 -7.26200 241 ft 14 kts 119°
2026-04-22 03:42 62.05968 -7.26144 239 ft 0 kts 299°
2026-04-22 03:44 62.06034 -7.26421 250 ft 47 kts 297°
2026-04-22 03:44 62.06249 -7.27298 281 ft 84 kts 297°
2026-04-22 03:44 62.06525 -7.28491 451 ft 94 kts 297°
2026-04-22 03:44 62.06778 -7.29820 753 ft 102 kts 290°
2026-04-22 03:45 62.06996 -7.31320 1052 ft 109 kts 288°
2026-04-22 03:45 62.07230 -7.32868 1385 ft 111 kts 289°
2026-04-22 03:45 62.07459 -7.34448 1732 ft 112 kts 288°
2026-04-22 03:45 62.07696 -7.36040 2089 ft 113 kts 289°
2026-04-22 03:46 62.07925 -7.37666 2386 ft 120 kts 288°
2026-04-22 03:46 62.08188 -7.39492 2473 ft 135 kts 289°
2026-04-22 03:46 62.08478 -7.41468 2573 ft 143 kts 288°
2026-04-22 03:46 62.08937 -7.43367 2653 ft 146 kts 307°
2026-04-22 03:47 62.09387 -7.45330 2714 ft 150 kts 287°
2026-04-22 03:47 62.09587 -7.47524 2806 ft 151 kts 283°
2026-04-22 03:47 62.09812 -7.49706 2885 ft 150 kts 284°
2026-04-22 03:47 62.10030 -7.51895 2961 ft 151 kts 283°
2026-04-22 03:48 62.10243 -7.54092 3035 ft 151 kts 283°
2026-04-22 03:48 62.10455 -7.56282 3118 ft 150 kts 283°
2026-04-22 03:48 62.10666 -7.58479 3198 ft 152 kts 284°
2026-04-22 03:48 62.11028 -7.60588 3266 ft 151 kts 295°
2026-04-22 03:49 62.11466 -7.62635 3349 ft 152 kts 295°
2026-04-22 03:49 62.11887 -7.64699 3427 ft 151 kts 295°
2026-04-22 03:49 62.12298 -7.66752 3509 ft 150 kts 295°
2026-04-22 03:49 62.12705 -7.68792 3582 ft 149 kts 294°
2026-04-22 03:50 62.13112 -7.70830 3657 ft 149 kts 295°
2026-04-22 03:50 62.13516 -7.72847 3736 ft 146 kts 294°
2026-04-22 03:50 62.13913 -7.74836 3813 ft 145 kts 294°
2026-04-22 03:50 62.14306 -7.76813 3893 ft 144 kts 294°
2026-04-22 03:51 62.14698 -7.78783 3967 ft 144 kts 294°
2026-04-22 03:51 62.15091 -7.80756 4035 ft 144 kts 294°
2026-04-22 03:51 62.15351 -7.82063 4087 ft 144 kts 294°
2026-04-22 03:51 62.15876 -7.84708 4188 ft 144 kts 295°
2026-04-22 03:52 62.16264 -7.86658 4271 ft 144 kts 294°
2026-04-22 03:52 62.16660 -7.88662 4345 ft 145 kts 295°
2026-04-22 03:52 62.17048 -7.90621 4420 ft 144 kts 295°
2026-04-22 03:52 62.17439 -7.92597 4498 ft 144 kts 295°
2026-04-22 03:53 62.17829 -7.94568 4571 ft 144 kts 295°
2026-04-22 03:53 62.18219 -7.96547 4652 ft 144 kts 295°
2026-04-22 03:53 62.18478 -7.97861 4703 ft 144 kts 295°
2026-04-22 03:53 62.19000 -8.00510 4806 ft 144 kts 295°
2026-04-22 03:54 62.19259 -8.01823 4850 ft 144 kts 295°
2026-04-22 03:54 62.19648 -8.03803 4936 ft 144 kts 295°
2026-04-22 03:54 62.20037 -8.05783 5013 ft 144 kts 295°
2026-04-22 03:54 62.20426 -8.07762 5091 ft 144 kts 295°
2026-04-22 03:55 62.20814 -8.09739 5166 ft 144 kts 295°
2026-04-22 03:55 62.21327 -8.12358 5269 ft 144 kts 295°
2026-04-22 03:55 62.21587 -8.13690 5323 ft 144 kts 295°
2026-04-22 03:55 62.21974 -8.15666 5402 ft 143 kts 295°
2026-04-22 03:56 62.22359 -8.17634 5483 ft 143 kts 295°
2026-04-22 03:56 62.22742 -8.19601 5557 ft 143 kts 295°
2026-04-22 03:56 62.23122 -8.21546 5632 ft 143 kts 295°
2026-04-22 03:56 62.23506 -8.23519 5708 ft 143 kts 295°
2026-04-22 03:57 62.23889 -8.25485 5786 ft 143 kts 295°
2026-04-22 03:57 62.24271 -8.27452 5866 ft 143 kts 295°
2026-04-22 03:57 62.24652 -8.29420 5932 ft 143 kts 296°
2026-04-22 03:57 62.25035 -8.31385 6015 ft 143 kts 295°
2026-04-22 03:58 62.25415 -8.33350 6088 ft 142 kts 296°
2026-04-22 03:58 62.25796 -8.35318 6166 ft 143 kts 296°
2026-04-22 03:58 62.26177 -8.37286 6243 ft 143 kts 296°
2026-04-22 03:58 62.26557 -8.39251 6320 ft 143 kts 296°
2026-04-22 03:59 62.26938 -8.41227 6398 ft 144 kts 296°
2026-04-22 03:59 62.27322 -8.43212 6470 ft 144 kts 295°
2026-04-22 03:59 62.27703 -8.45193 6551 ft 144 kts 295°
2026-04-22 03:59 62.28085 -8.47176 6631 ft 144 kts 295°
2026-04-22 04:00 62.28466 -8.49158 6709 ft 144 kts 295°
2026-04-22 04:00 62.28848 -8.51146 6788 ft 144 kts 295°
2026-04-22 04:00 62.29230 -8.53139 6866 ft 144 kts 295°
2026-04-22 04:00 62.29611 -8.55122 6945 ft 144 kts 295°
2026-04-22 04:01 62.29993 -8.57117 7020 ft 144 kts 296°
2026-04-22 04:01 62.30373 -8.59105 7096 ft 144 kts 295°
2026-04-22 04:01 62.30755 -8.61099 7169 ft 144 kts 295°
2026-04-22 04:01 62.31135 -8.63094 7243 ft 144 kts 295°
2026-04-22 04:02 62.31517 -8.65094 7317 ft 144 kts 295°
2026-04-22 04:02 62.31897 -8.67089 7391 ft 144 kts 296°
2026-04-22 04:02 62.32273 -8.69061 7464 ft 144 kts 295°
2026-04-22 04:02 62.32652 -8.71057 7538 ft 144 kts 296°
2026-04-22 04:03 62.33032 -8.73054 7612 ft 144 kts 296°
2026-04-22 04:03 62.33411 -8.75056 7687 ft 144 kts 296°
2026-04-22 04:03 62.33792 -8.77057 7761 ft 145 kts 296°
2026-04-22 04:03 62.34170 -8.79056 7828 ft 144 kts 295°
2026-04-22 04:04 62.34550 -8.81064 7903 ft 144 kts 295°
2026-04-22 04:04 62.34929 -8.83067 7981 ft 144 kts 295°
2026-04-22 04:04 62.35311 -8.85087 7998 ft 148 kts 295°
2026-04-22 04:04 62.35704 -8.87160 8002 ft 150 kts 295°
2026-04-22 04:05 62.36093 -8.89232 8081 ft 147 kts 295°
2026-04-22 04:05 62.36472 -8.91258 8175 ft 145 kts 295°
2026-04-22 04:05 62.36848 -8.93255 8271 ft 143 kts 295°
2026-04-22 04:05 62.37220 -8.95236 8369 ft 142 kts 295°
2026-04-22 04:06 62.37590 -8.97206 8461 ft 141 kts 295°
2026-04-22 04:06 62.37958 -8.99166 8569 ft 141 kts 295°
2026-04-22 04:06 62.38319 -9.01097 8656 ft 141 kts 295°
2026-04-22 04:06 62.38696 -9.03098 8658 ft 146 kts 296°
2026-04-22 04:07 62.39074 -9.05118 8659 ft 145 kts 295°
2026-04-22 04:07 62.39448 -9.07122 8658 ft 144 kts 295°
2026-04-22 04:07 62.39819 -9.09114 8657 ft 143 kts 295°
2026-04-22 04:07 62.40188 -9.11095 8658 ft 142 kts 295°
2026-04-22 04:08 62.40555 -9.13067 8657 ft 141 kts 295°
2026-04-22 04:08 62.40921 -9.15035 8656 ft 141 kts 295°
2026-04-22 04:08 62.41287 -9.17001 8655 ft 141 kts 295°
2026-04-22 04:08 62.41652 -9.18968 8654 ft 141 kts 295°
2026-04-22 04:09 62.42017 -9.20933 8654 ft 141 kts 295°
2026-04-22 04:09 62.42381 -9.22900 8654 ft 141 kts 295°
2026-04-22 04:09 62.42745 -9.24866 8654 ft 141 kts 295°
2026-04-22 04:09 62.43109 -9.26834 8654 ft 141 kts 295°
2026-04-22 04:10 62.43472 -9.28800 8654 ft 141 kts 295°
2026-04-22 04:10 62.43835 -9.30767 8654 ft 141 kts 295°
2026-04-22 04:10 62.44198 -9.32734 8654 ft 141 kts 295°
2026-04-22 04:10 62.44560 -9.34701 8654 ft 141 kts 295°
2026-04-22 04:11 62.44922 -9.36670 8654 ft 141 kts 295°
2026-04-22 04:11 62.45280 -9.38614 8651 ft 141 kts 295°
2026-04-22 04:11 62.45641 -9.40584 8651 ft 141 kts 295°
2026-04-22 04:11 62.46002 -9.42550 8654 ft 141 kts 295°
2026-04-22 04:12 62.46363 -9.44519 8654 ft 141 kts 295°
2026-04-22 04:12 62.46723 -9.46489 8653 ft 141 kts 295°
2026-04-22 04:12 62.47084 -9.48460 8654 ft 141 kts 295°
2026-04-22 04:12 62.47444 -9.50431 8654 ft 141 kts 295°
2026-04-22 04:13 62.47804 -9.52402 8651 ft 141 kts 295°
2026-04-22 04:13 62.48163 -9.54372 8651 ft 141 kts 295°
2026-04-22 04:13 62.48523 -9.56347 8650 ft 141 kts 295°
2026-04-22 04:13 62.48881 -9.58320 8642 ft 141 kts 295°
2026-04-22 04:14 62.49241 -9.60296 8645 ft 141 kts 295°
2026-04-22 04:14 62.49600 -9.62273 8644 ft 141 kts 295°
2026-04-22 04:14 62.49959 -9.64241 8645 ft 140 kts 295°
2026-04-22 04:14 62.50312 -9.66200 8645 ft 140 kts 295°
2026-04-22 04:15 62.50667 -9.68163 8642 ft 140 kts 295°
2026-04-22 04:15 62.51022 -9.70125 8642 ft 140 kts 295°
2026-04-22 04:15 62.51372 -9.72065 8641 ft 140 kts 295°
2026-04-22 04:15 62.51726 -9.74025 8642 ft 140 kts 295°
2026-04-22 04:16 62.52079 -9.75984 8644 ft 140 kts 295°
2026-04-22 04:16 62.52784 -9.79900 8644 ft 140 kts 295°
2026-04-22 04:16 62.53136 -9.81858 8644 ft 140 kts 295°
2026-04-22 04:17 62.53488 -9.83817 8641 ft 140 kts 295°
2026-04-22 04:17 62.53838 -9.85771 8640 ft 139 kts 295°
2026-04-22 04:17 62.54191 -9.87733 8638 ft 139 kts 295°
2026-04-22 04:17 62.54540 -9.89689 8637 ft 139 kts 295°
2026-04-22 04:18 62.54891 -9.91648 8638 ft 139 kts 295°
2026-04-22 04:18 62.55241 -9.93610 8639 ft 140 kts 295°
2026-04-22 04:18 62.55595 -9.95568 8639 ft 139 kts 295°
2026-04-22 04:18 62.55950 -9.97525 8639 ft 139 kts 295°
2026-04-22 04:19 62.56400 -9.99376 8634 ft 138 kts 305°
2026-04-22 04:19 62.56945 -10.01076 8626 ft 137 kts 314°
2026-04-22 04:19 62.57609 -10.02567 8627 ft 137 kts 316°
2026-04-22 04:19 62.58264 -10.04070 8628 ft 137 kts 316°
2026-04-22 04:20 62.58916 -10.05573 8628 ft 137 kts 316°
2026-04-22 04:20 62.59571 -10.07073 8628 ft 137 kts 316°
2026-04-22 04:20 62.60223 -10.08571 8627 ft 137 kts 316°
2026-04-22 04:20 62.60871 -10.10055 8628 ft 137 kts 316°
2026-04-22 04:21 62.61532 -10.11575 8627 ft 137 kts 316°
2026-04-22 04:21 62.62178 -10.13055 8628 ft 137 kts 316°
2026-04-22 04:21 62.62841 -10.14579 8627 ft 137 kts 316°
2026-04-22 04:21 62.63490 -10.16065 8628 ft 137 kts 316°
2026-04-22 04:22 62.64142 -10.17568 8625 ft 137 kts 316°
2026-04-22 04:22 62.64797 -10.19073 8625 ft 137 kts 316°
2026-04-22 04:22 62.65451 -10.20578 8625 ft 137 kts 316°
2026-04-22 04:22 62.66103 -10.22085 8625 ft 137 kts 316°
2026-04-22 04:23 62.66756 -10.23595 8622 ft 137 kts 316°
2026-04-22 04:23 62.67409 -10.25100 8622 ft 137 kts 316°
2026-04-22 04:23 62.68062 -10.26607 8622 ft 137 kts 316°
2026-04-22 04:23 62.68717 -10.28119 8622 ft 137 kts 316°
2026-04-22 04:24 62.69373 -10.29630 8622 ft 137 kts 316°
2026-04-22 04:24 62.70027 -10.31140 8622 ft 137 kts 316°
2026-04-22 04:24 62.70681 -10.32652 8622 ft 137 kts 316°
2026-04-22 04:24 62.71251 -10.34317 8605 ft 140 kts 300°
2026-04-22 04:25 62.71441 -10.36429 8587 ft 144 kts 275°
2026-04-22 04:25 62.71556 -10.38573 8573 ft 141 kts 290°
2026-04-22 04:25 62.71936 -10.40526 8574 ft 140 kts 298°
2026-04-22 04:25 62.72333 -10.42458 8573 ft 139 kts 297°
2026-04-22 04:26 62.72719 -10.44365 8566 ft 139 kts 297°
2026-04-22 04:26 62.73111 -10.46289 8565 ft 139 kts 297°
2026-04-22 04:26 62.73500 -10.48213 8564 ft 139 kts 297°
2026-04-22 04:26 62.73890 -10.50142 8564 ft 139 kts 297°
2026-04-22 04:27 62.74277 -10.52055 8563 ft 137 kts 297°
2026-04-22 04:27 62.74661 -10.53957 8564 ft 137 kts 297°
2026-04-22 04:27 62.75043 -10.55852 8563 ft 136 kts 298°
2026-04-22 04:27 62.75426 -10.57740 8561 ft 136 kts 299°
2026-04-22 04:28 62.75810 -10.59628 8563 ft 137 kts 296°
2026-04-22 04:28 62.76189 -10.61536 8562 ft 137 kts 297°
2026-04-22 04:28 62.76567 -10.63456 8563 ft 137 kts 297°
2026-04-22 04:28 62.76951 -10.65355 8564 ft 136 kts 297°
2026-04-22 04:29 62.77336 -10.67239 8562 ft 136 kts 298°
2026-04-22 04:29 62.77710 -10.69146 8562 ft 137 kts 296°
2026-04-22 04:29 62.78093 -10.71046 8561 ft 137 kts 298°
2026-04-22 04:29 62.78478 -10.72959 8561 ft 138 kts 296°
2026-04-22 04:30 62.78861 -10.74883 8562 ft 138 kts 296°
2026-04-22 04:30 62.79244 -10.76807 8561 ft 138 kts 296°
2026-04-22 04:30 62.79628 -10.78732 8560 ft 138 kts 296°
2026-04-22 04:30 62.80007 -10.80652 8563 ft 138 kts 296°
2026-04-22 04:31 62.80393 -10.82556 8564 ft 137 kts 298°
2026-04-22 04:31 62.80766 -10.84474 8565 ft 137 kts 297°
2026-04-22 04:31 62.81155 -10.86366 8564 ft 137 kts 297°
2026-04-22 04:31 62.81532 -10.88273 8564 ft 137 kts 298°
2026-04-22 04:32 62.81904 -10.90169 8561 ft 137 kts 295°
2026-04-22 04:32 62.82287 -10.92077 8563 ft 137 kts 296°
2026-04-22 04:32 62.82649 -10.94001 8565 ft 136 kts 297°
2026-04-22 04:32 62.83031 -10.95897 8565 ft 136 kts 297°
2026-04-22 04:33 62.83408 -10.97797 8562 ft 136 kts 297°
2026-04-22 04:33 62.83784 -10.99693 8561 ft 136 kts 297°
2026-04-22 04:33 62.84158 -11.01589 8560 ft 136 kts 297°
2026-04-22 04:33 62.84528 -11.03495 8559 ft 136 kts 296°
2026-04-22 04:34 62.84903 -11.05390 8560 ft 135 kts 297°
2026-04-22 04:34 62.85284 -11.07281 8561 ft 136 kts 297°
2026-04-22 04:34 62.85654 -11.09195 8560 ft 136 kts 296°
2026-04-22 04:34 62.86027 -11.11107 8560 ft 136 kts 295°
2026-04-22 04:35 62.86399 -11.13009 8565 ft 136 kts 297°
2026-04-22 04:35 62.86771 -11.14902 8565 ft 135 kts 297°
2026-04-22 04:35 62.87153 -11.16788 8563 ft 136 kts 296°
2026-04-22 04:35 62.87510 -11.18684 8563 ft 136 kts 295°
2026-04-22 04:36 62.87884 -11.20597 8560 ft 137 kts 296°
2026-04-22 04:36 62.88258 -11.22510 8562 ft 136 kts 297°
2026-04-22 04:36 62.88631 -11.24423 8560 ft 137 kts 296°
2026-04-22 04:36 62.89005 -11.26341 8558 ft 137 kts 296°
2026-04-22 04:37 62.89381 -11.28274 8557 ft 138 kts 295°
2026-04-22 04:37 62.89743 -11.30211 8560 ft 136 kts 296°
2026-04-22 04:37 62.90125 -11.32102 8558 ft 135 kts 297°
2026-04-22 04:37 62.90491 -11.34001 8561 ft 135 kts 299°
2026-04-22 04:38 62.90871 -11.35882 8557 ft 135 kts 298°
2026-04-22 04:38 62.91238 -11.37789 8556 ft 136 kts 295°
2026-04-22 04:38 62.91580 -11.39709 8581 ft 134 kts 296°
2026-04-22 04:38 62.91962 -11.41561 8600 ft 133 kts 297°
2026-04-22 04:39 62.92310 -11.43447 8613 ft 133 kts 297°
2026-04-22 04:39 62.92676 -11.45314 8614 ft 133 kts 297°
2026-04-22 04:39 62.93040 -11.47186 8616 ft 133 kts 297°
2026-04-22 04:39 62.93402 -11.49064 8617 ft 133 kts 297°
2026-04-22 04:40 62.93759 -11.50918 8617 ft 134 kts 297°
2026-04-22 04:40 62.94134 -11.52791 8614 ft 135 kts 297°
2026-04-22 04:40 62.94483 -11.54739 8615 ft 135 kts 297°
2026-04-22 04:40 62.94859 -11.56608 8614 ft 136 kts 296°
2026-04-22 04:41 62.95226 -11.58524 8618 ft 136 kts 300°
2026-04-22 04:41 62.95586 -11.60447 8620 ft 136 kts 295°
2026-04-22 04:41 62.95956 -11.62348 8622 ft 135 kts 297°
2026-04-22 04:41 62.96313 -11.64244 8624 ft 134 kts 296°
2026-04-22 04:42 62.96683 -11.66127 8621 ft 135 kts 295°
2026-04-22 04:42 62.97042 -11.68050 8620 ft 136 kts 295°
2026-04-22 04:42 62.97408 -11.69981 8621 ft 137 kts 295°
2026-04-22 04:42 62.97773 -11.71908 8623 ft 136 kts 295°
2026-04-22 04:43 62.98135 -11.73818 8624 ft 135 kts 297°
2026-04-22 04:43 62.98497 -11.75725 8625 ft 135 kts 299°
2026-04-22 04:43 62.98873 -11.77616 8622 ft 136 kts 295°
2026-04-22 04:43 62.99201 -11.79563 8622 ft 135 kts 295°
2026-04-22 04:44 62.99576 -11.81435 8624 ft 133 kts 298°
2026-04-22 04:44 62.99820 -11.82676 8623 ft 133 kts 296°
2026-04-22 04:44 63.00187 -11.84549 8613 ft 134 kts 294°
2026-04-22 04:44 63.00661 -11.87099 8612 ft 135 kts 295°
2026-04-22 04:45 63.00992 -11.89009 8613 ft 134 kts 296°
2026-04-22 04:45 63.01240 -11.90271 8615 ft 133 kts 297°
2026-04-22 04:45 63.01727 -11.92755 8612 ft 134 kts 296°
2026-04-22 04:45 63.01964 -11.94043 8613 ft 134 kts 294°
2026-04-22 04:46 63.02313 -11.95941 8612 ft 133 kts 297°
2026-04-22 04:46 63.02671 -11.97821 8612 ft 133 kts 297°
2026-04-22 04:46 63.03024 -11.99693 8612 ft 132 kts 297°
2026-04-22 04:46 63.03495 -12.02156 8609 ft 132 kts 298°
2026-04-22 04:47 63.03738 -12.03427 8609 ft 134 kts 292°
2026-04-22 04:47 63.04096 -12.05309 8611 ft 134 kts 296°
2026-04-22 04:47 63.04416 -12.07221 8611 ft 134 kts 294°
2026-04-22 04:47 63.04797 -12.09098 8615 ft 133 kts 297°
2026-04-22 04:48 63.05139 -12.10982 8615 ft 132 kts 299°
2026-04-22 04:48 63.05490 -12.12835 8607 ft 134 kts 293°
2026-04-22 04:48 63.05841 -12.14728 8607 ft 134 kts 297°
2026-04-22 04:48 63.06197 -12.16646 8605 ft 136 kts 294°
2026-04-22 04:49 63.06552 -12.18581 8605 ft 137 kts 294°
2026-04-22 04:49 63.06912 -12.20528 8606 ft 137 kts 294°
2026-04-22 04:49 63.07274 -12.22472 8608 ft 137 kts 295°
2026-04-22 04:49 63.07632 -12.24432 8611 ft 137 kts 291°
2026-04-22 04:50 63.07976 -12.26378 8609 ft 135 kts 297°
2026-04-22 04:50 63.08357 -12.28277 8606 ft 136 kts 291°
2026-04-22 04:50 63.08690 -12.30219 8609 ft 134 kts 296°
2026-04-22 04:50 63.09066 -12.32095 8609 ft 134 kts 297°
2026-04-22 04:51 63.09422 -12.34000 8603 ft 136 kts 294°
2026-04-22 04:51 63.09751 -12.35922 8605 ft 135 kts 298°
2026-04-22 04:51 63.10123 -12.37830 8604 ft 136 kts 291°
2026-04-22 04:51 63.10452 -12.39766 8608 ft 134 kts 296°
2026-04-22 04:52 63.10810 -12.41653 8606 ft 133 kts 296°
2026-04-22 04:52 63.11160 -12.43541 8605 ft 133 kts 296°
2026-04-22 04:52 63.11506 -12.45427 8602 ft 133 kts 296°
2026-04-22 04:52 63.11854 -12.47322 8601 ft 133 kts 298°
2026-04-22 04:53 63.12207 -12.49223 8602 ft 134 kts 294°
2026-04-22 04:53 63.12546 -12.51135 8605 ft 133 kts 296°
2026-04-22 04:53 63.12910 -12.53017 8601 ft 134 kts 295°
2026-04-22 04:53 63.13246 -12.54955 8602 ft 135 kts 295°
2026-04-22 04:54 63.13602 -12.56881 8600 ft 136 kts 290°
2026-04-22 04:54 63.13934 -12.58830 8602 ft 135 kts 296°
2026-04-22 04:54 63.14295 -12.60729 8604 ft 134 kts 296°
2026-04-22 04:54 63.14652 -12.62626 8601 ft 134 kts 295°
2026-04-22 04:55 63.14999 -12.64551 8602 ft 135 kts 294°
2026-04-22 04:55 63.15330 -12.66464 8604 ft 134 kts 298°
2026-04-22 04:55 63.15702 -12.68389 8602 ft 135 kts 295°
2026-04-22 04:55 63.16045 -12.70326 8602 ft 136 kts 294°
2026-04-22 04:56 63.16394 -12.72268 8599 ft 136 kts 294°
2026-04-22 04:56 63.16746 -12.74211 8599 ft 136 kts 294°
2026-04-22 04:56 63.17097 -12.76164 8593 ft 136 kts 291°
2026-04-22 04:56 63.17429 -12.78107 8597 ft 134 kts 295°
2026-04-22 04:57 63.17787 -12.79960 8597 ft 132 kts 295°
2026-04-22 04:57 63.18122 -12.81847 8596 ft 132 kts 296°
2026-04-22 04:57 63.18466 -12.83735 8596 ft 132 kts 297°
2026-04-22 04:57 63.18816 -12.85627 8592 ft 134 kts 292°
2026-04-22 04:58 63.19131 -12.87561 8591 ft 133 kts 295°
2026-04-22 04:58 63.19493 -12.89441 8589 ft 133 kts 295°
2026-04-22 04:58 63.19821 -12.91357 8591 ft 132 kts 295°
2026-04-22 04:58 63.20163 -12.93233 8593 ft 131 kts 295°
2026-04-22 04:59 63.20499 -12.95107 8594 ft 131 kts 295°
2026-04-22 04:59 63.20833 -12.96977 8593 ft 130 kts 295°
2026-04-22 04:59 63.21164 -12.98847 8586 ft 131 kts 295°
2026-04-22 04:59 63.21504 -13.00721 8583 ft 132 kts 295°
2026-04-22 05:00 63.21832 -13.02630 8584 ft 132 kts 294°
2026-04-22 05:00 63.22186 -13.04497 8581 ft 132 kts 295°
2026-04-22 05:00 63.22510 -13.06412 8584 ft 132 kts 295°
2026-04-22 05:00 63.22852 -13.08314 8586 ft 133 kts 292°
2026-04-22 05:01 63.23177 -13.10196 8589 ft 132 kts 297°
2026-04-22 05:01 63.23521 -13.12095 8590 ft 132 kts 294°
2026-04-22 05:01 63.23869 -13.13979 8586 ft 133 kts 294°
2026-04-22 05:01 63.24204 -13.15919 8582 ft 135 kts 293°
2026-04-22 05:02 63.24544 -13.17864 8584 ft 136 kts 293°
2026-04-22 05:02 63.24889 -13.19823 8585 ft 136 kts 293°
2026-04-22 05:02 63.25233 -13.21778 8582 ft 136 kts 291°
2026-04-22 05:02 63.25566 -13.23721 8584 ft 134 kts 296°
2026-04-22 05:03 63.25919 -13.25646 8581 ft 135 kts 293°
2026-04-22 05:03 63.26259 -13.27600 8580 ft 136 kts 293°
2026-04-22 05:03 63.26579 -13.29567 8582 ft 134 kts 294°
2026-04-22 05:03 63.26931 -13.31479 8581 ft 134 kts 294°
2026-04-22 05:04 63.27273 -13.33388 8581 ft 132 kts 297°
2026-04-22 05:04 63.27618 -13.35304 8578 ft 134 kts 295°
2026-04-22 05:04 63.27956 -13.37229 8576 ft 135 kts 293°
2026-04-22 05:04 63.28273 -13.39191 8578 ft 134 kts 292°
2026-04-22 05:05 63.28613 -13.41086 8585 ft 133 kts 296°
2026-04-22 05:05 63.28955 -13.43004 8586 ft 134 kts 294°
2026-04-22 05:05 63.29289 -13.44931 8586 ft 134 kts 294°
2026-04-22 05:05 63.29624 -13.46855 8586 ft 133 kts 294°
2026-04-22 05:06 63.29958 -13.48770 8586 ft 133 kts 294°
2026-04-22 05:06 63.30290 -13.50681 8580 ft 132 kts 294°
2026-04-22 05:06 63.30620 -13.52585 8579 ft 132 kts 296°
2026-04-22 05:06 63.30962 -13.54495 8575 ft 134 kts 293°
2026-04-22 05:07 63.31286 -13.56443 8580 ft 133 kts 297°
2026-04-22 05:07 63.31635 -13.58373 8577 ft 135 kts 287°
2026-04-22 05:07 63.31943 -13.60328 8582 ft 132 kts 298°
2026-04-22 05:07 63.32294 -13.62222 8583 ft 132 kts 294°
2026-04-22 05:08 63.32630 -13.64128 8578 ft 133 kts 293°
2026-04-22 05:08 63.32937 -13.66069 8580 ft 132 kts 294°
2026-04-22 05:08 63.33283 -13.67963 8572 ft 133 kts 294°
2026-04-22 05:08 63.33614 -13.69904 8570 ft 135 kts 292°
2026-04-22 05:09 63.33947 -13.71856 8570 ft 135 kts 292°
2026-04-22 05:09 63.34283 -13.73824 8571 ft 136 kts 292°
2026-04-22 05:09 63.34621 -13.75793 8572 ft 136 kts 292°
2026-04-22 05:09 63.34959 -13.77763 8574 ft 136 kts 291°
2026-04-22 05:10 63.35278 -13.79732 8575 ft 133 kts 296°
2026-04-22 05:10 63.35631 -13.81644 8569 ft 134 kts 292°
2026-04-22 05:10 63.36157 -13.83304 8547 ft 132 kts 320°
2026-04-22 05:10 63.36983 -13.84199 8535 ft 133 kts 339°
2026-04-22 05:11 63.37775 -13.85207 8513 ft 132 kts 324°
2026-04-22 05:11 63.38507 -13.86380 8520 ft 130 kts 322°
2026-04-22 05:11 63.39241 -13.87591 8517 ft 132 kts 321°
2026-04-22 05:11 63.39975 -13.88798 8517 ft 131 kts 322°
2026-04-22 05:12 63.40709 -13.90021 8516 ft 132 kts 322°
2026-04-22 05:12 63.41452 -13.91257 8514 ft 133 kts 322°
2026-04-22 05:12 63.42191 -13.92484 8519 ft 132 kts 322°
2026-04-22 05:12 63.42923 -13.93714 8518 ft 132 kts 321°
2026-04-22 05:13 63.43658 -13.94936 8522 ft 131 kts 321°
2026-04-22 05:13 63.44383 -13.96145 8521 ft 130 kts 321°
2026-04-22 05:13 63.45109 -13.97365 8517 ft 131 kts 321°
2026-04-22 05:13 63.45840 -13.98583 8519 ft 131 kts 322°
2026-04-22 05:14 63.46574 -13.99801 8513 ft 132 kts 322°
2026-04-22 05:14 63.47301 -14.01027 8514 ft 133 kts 322°
2026-04-22 05:14 63.48040 -14.02266 8517 ft 132 kts 321°
2026-04-22 05:14 63.48773 -14.03500 8517 ft 132 kts 322°
2026-04-22 05:15 63.49511 -14.04733 8519 ft 132 kts 322°
2026-04-22 05:15 63.50245 -14.05964 8522 ft 131 kts 321°
2026-04-22 05:15 63.50975 -14.07188 8519 ft 131 kts 322°
2026-04-22 05:15 63.51707 -14.08428 8517 ft 132 kts 321°
2026-04-22 05:16 63.52441 -14.09661 8519 ft 132 kts 322°
2026-04-22 05:16 63.53182 -14.10909 8515 ft 134 kts 322°
2026-04-22 05:16 63.53927 -14.12159 8519 ft 134 kts 322°
2026-04-22 05:16 63.54670 -14.13405 8516 ft 132 kts 321°
2026-04-22 05:17 63.55409 -14.14652 8515 ft 133 kts 321°
2026-04-22 05:17 63.56143 -14.15895 8517 ft 131 kts 321°
2026-04-22 05:17 63.56876 -14.17134 8516 ft 132 kts 321°
2026-04-22 05:17 63.57609 -14.18371 8514 ft 133 kts 322°
2026-04-22 05:18 63.59081 -14.20864 8514 ft 133 kts 322°
2026-04-22 05:18 63.59820 -14.22117 8511 ft 134 kts 322°
2026-04-22 05:18 63.60561 -14.23370 8515 ft 133 kts 322°
2026-04-22 05:19 63.61296 -14.24613 8513 ft 133 kts 322°
2026-04-22 05:19 63.62031 -14.25860 8516 ft 132 kts 321°
2026-04-22 05:19 63.62758 -14.27093 8517 ft 130 kts 321°
2026-04-22 05:19 63.63480 -14.28325 8514 ft 131 kts 321°
2026-04-22 05:20 63.64202 -14.29552 8512 ft 132 kts 321°
2026-04-22 05:20 63.64932 -14.30785 8510 ft 132 kts 322°
2026-04-22 05:20 63.65665 -14.32041 8511 ft 132 kts 322°
2026-04-22 05:20 63.66403 -14.33299 8509 ft 134 kts 322°
2026-04-22 05:21 63.67141 -14.34560 8510 ft 133 kts 322°
2026-04-22 05:21 63.67878 -14.35819 8508 ft 133 kts 322°
2026-04-22 05:21 63.68613 -14.37070 8509 ft 132 kts 322°
2026-04-22 05:21 63.69342 -14.38310 8510 ft 131 kts 322°
2026-04-22 05:22 63.70071 -14.39560 8508 ft 132 kts 322°
2026-04-22 05:22 63.70802 -14.40815 8509 ft 132 kts 322°
2026-04-22 05:22 63.71538 -14.42068 8507 ft 133 kts 322°
2026-04-22 05:22 63.72280 -14.43341 8507 ft 134 kts 322°
2026-04-22 05:23 63.73021 -14.44606 8511 ft 133 kts 322°
2026-04-22 05:23 63.73745 -14.45852 8509 ft 133 kts 322°
2026-04-22 05:23 63.74481 -14.47115 8511 ft 132 kts 322°
2026-04-22 05:23 63.75222 -14.48385 8510 ft 132 kts 322°
2026-04-22 05:24 63.75950 -14.49635 8503 ft 132 kts 322°
2026-04-22 05:24 63.76672 -14.50880 8502 ft 132 kts 322°
2026-04-22 05:24 63.77401 -14.52134 8503 ft 132 kts 322°
2026-04-22 05:24 63.78134 -14.53397 8501 ft 133 kts 322°
2026-04-22 05:25 63.78874 -14.54673 8504 ft 133 kts 322°
2026-04-22 05:25 63.79610 -14.55934 8506 ft 132 kts 322°
2026-04-22 05:25 63.80341 -14.57198 8505 ft 132 kts 322°
2026-04-22 05:25 63.81069 -14.58455 8509 ft 131 kts 322°
2026-04-22 05:26 63.81791 -14.59704 8506 ft 131 kts 322°
2026-04-22 05:26 63.82518 -14.60960 8504 ft 132 kts 322°
2026-04-22 05:26 63.83246 -14.62223 8506 ft 131 kts 322°
2026-04-22 05:26 63.83973 -14.63481 8502 ft 132 kts 322°
2026-04-22 05:27 63.84705 -14.64746 8503 ft 132 kts 322°
2026-04-22 05:27 63.85436 -14.66015 8506 ft 132 kts 322°
2026-04-22 05:27 63.86168 -14.67281 8504 ft 133 kts 322°
2026-04-22 05:27 63.86899 -14.68551 8504 ft 132 kts 322°
2026-04-22 05:28 63.87673 -14.69625 8541 ft 129 kts 333°
2026-04-22 05:28 63.88546 -14.70242 8486 ft 135 kts 344°
2026-04-22 05:28 63.89460 -14.70722 8485 ft 134 kts 343°
2026-04-22 05:28 63.90324 -14.71535 8476 ft 134 kts 331°
2026-04-22 05:29 63.91091 -14.72627 8543 ft 129 kts 323°
2026-04-22 05:29 63.91774 -14.73900 8584 ft 128 kts 317°
2026-04-22 05:29 63.92417 -14.75343 8575 ft 130 kts 315°
2026-04-22 05:29 63.93049 -14.76838 8519 ft 135 kts 313°
2026-04-22 05:30 63.93625 -14.78510 8500 ft 133 kts 306°
2026-04-22 05:30 63.94138 -14.80243 8504 ft 132 kts 304°
2026-04-22 05:30 63.94622 -14.82085 8411 ft 138 kts 301°
2026-04-22 05:30 63.95081 -14.84003 8427 ft 134 kts 301°
2026-04-22 05:31 63.95535 -14.85786 8504 ft 128 kts 303°
2026-04-22 05:31 63.96021 -14.87536 8430 ft 134 kts 305°
2026-04-22 05:31 63.96521 -14.89302 8479 ft 131 kts 303°
2026-04-22 05:31 63.96999 -14.91033 8534 ft 129 kts 303°
2026-04-22 05:32 63.97485 -14.92776 8535 ft 131 kts 303°
2026-04-22 05:32 63.98095 -14.94320 8532 ft 131 kts 319°
2026-04-22 05:32 63.98824 -14.95576 8532 ft 132 kts 322°
2026-04-22 05:32 63.99549 -14.96850 8537 ft 131 kts 322°
2026-04-22 05:33 64.00751 -14.98948 8538 ft 130 kts 322°
2026-04-22 05:33 64.01715 -15.00642 8539 ft 131 kts 322°
2026-04-22 05:33 64.02430 -15.01893 8537 ft 132 kts 322°
2026-04-22 05:34 64.03159 -15.03176 8536 ft 133 kts 322°
2026-04-22 05:34 64.03888 -15.04460 8536 ft 133 kts 322°
2026-04-22 05:34 64.04684 -15.05486 8531 ft 132 kts 336°
2026-04-22 05:34 64.05527 -15.06353 8532 ft 132 kts 333°
2026-04-22 05:35 64.06361 -15.07217 8536 ft 131 kts 334°
2026-04-22 05:35 64.06922 -15.07792 8534 ft 132 kts 334°
2026-04-22 05:35 64.07759 -15.08666 8534 ft 132 kts 334°
2026-04-22 05:35 64.08584 -15.09533 8532 ft 133 kts 334°
2026-04-22 05:36 64.09468 -15.10205 8519 ft 136 kts 350°
2026-04-22 05:36 64.10402 -15.10468 8517 ft 135 kts 346°
2026-04-22 05:36 64.11243 -15.11347 8501 ft 133 kts 325°
2026-04-22 05:36 64.11982 -15.12623 8503 ft 132 kts 322°
2026-04-22 05:37 64.12711 -15.13905 8502 ft 133 kts 322°
2026-04-22 05:37 64.13443 -15.15206 8498 ft 133 kts 321°
2026-04-22 05:37 64.14177 -15.16516 8498 ft 134 kts 322°
2026-04-22 05:37 64.14918 -15.17833 8497 ft 135 kts 321°
2026-04-22 05:38 64.15661 -15.19156 8499 ft 135 kts 321°
2026-04-22 05:38 64.16403 -15.20479 8499 ft 135 kts 321°
2026-04-22 05:38 64.17144 -15.21804 8500 ft 135 kts 321°
2026-04-22 05:38 64.17884 -15.23124 8503 ft 135 kts 321°
2026-04-22 05:39 64.18625 -15.24452 8499 ft 136 kts 322°
2026-04-22 05:39 64.19361 -15.25774 8499 ft 136 kts 322°
2026-04-22 05:39 64.20109 -15.27104 8499 ft 136 kts 322°
2026-04-22 05:39 64.20856 -15.28441 8499 ft 136 kts 322°
2026-04-22 05:40 64.21602 -15.29780 8499 ft 136 kts 322°
2026-04-22 05:40 64.22350 -15.31122 8500 ft 136 kts 322°
2026-04-22 05:40 64.23097 -15.32463 8500 ft 136 kts 322°
2026-04-22 05:40 64.23844 -15.33804 8500 ft 136 kts 322°
2026-04-22 05:41 64.24591 -15.35148 8500 ft 136 kts 322°
2026-04-22 05:41 64.25338 -15.36491 8500 ft 136 kts 322°
2026-04-22 05:41 64.26086 -15.37837 8500 ft 136 kts 322°
2026-04-22 05:41 64.26833 -15.39184 8500 ft 136 kts 322°
2026-04-22 05:42 64.27580 -15.40530 8500 ft 136 kts 322°
2026-04-22 05:42 64.28317 -15.41860 8500 ft 136 kts 321°
2026-04-22 05:42 64.29063 -15.43206 8500 ft 136 kts 322°
2026-04-22 05:42 64.29809 -15.44555 8498 ft 136 kts 322°
2026-04-22 05:43 64.30555 -15.45904 8497 ft 136 kts 321°
2026-04-22 05:43 64.31302 -15.47254 8497 ft 136 kts 322°
2026-04-22 05:43 64.32049 -15.48606 8498 ft 136 kts 322°
2026-04-22 05:43 64.32796 -15.49958 8498 ft 136 kts 321°
2026-04-22 05:44 64.33542 -15.51311 8499 ft 136 kts 322°
2026-04-22 05:44 64.34285 -15.52660 8499 ft 136 kts 321°
2026-04-22 05:44 64.35038 -15.53980 8496 ft 136 kts 327°
2026-04-22 05:44 64.35832 -15.55156 8479 ft 136 kts 318°
2026-04-22 05:45 64.36457 -15.56789 8480 ft 135 kts 311°
2026-04-22 05:45 64.37083 -15.58410 8473 ft 135 kts 313°
2026-04-22 05:45 64.37739 -15.59972 8471 ft 135 kts 315°
2026-04-22 05:45 64.38406 -15.61499 8481 ft 135 kts 315°
2026-04-22 05:46 64.39079 -15.63024 8473 ft 135 kts 316°
2026-04-22 05:46 64.39752 -15.64547 8472 ft 136 kts 316°
2026-04-22 05:46 64.40419 -15.66046 8474 ft 136 kts 315°
2026-04-22 05:46 64.41089 -15.67572 8477 ft 135 kts 316°
2026-04-22 05:47 64.41766 -15.69095 8478 ft 136 kts 315°
2026-04-22 05:47 64.42442 -15.70626 8487 ft 137 kts 316°
2026-04-22 05:47 64.43121 -15.72169 8479 ft 136 kts 315°
2026-04-22 05:47 64.43796 -15.73702 8478 ft 135 kts 316°
2026-04-22 05:48 64.44467 -15.75231 8476 ft 135 kts 316°
2026-04-22 05:48 64.45141 -15.76758 8480 ft 136 kts 316°
2026-04-22 05:48 64.45812 -15.78281 8480 ft 135 kts 315°
2026-04-22 05:48 64.46484 -15.79812 8486 ft 135 kts 315°
2026-04-22 05:49 64.47157 -15.81340 8479 ft 135 kts 315°
2026-04-22 05:49 64.47825 -15.82868 8480 ft 135 kts 315°
2026-04-22 05:49 64.48496 -15.84395 8488 ft 135 kts 315°
2026-04-22 05:49 64.49168 -15.85926 8481 ft 135 kts 315°
2026-04-22 05:50 64.49840 -15.87461 8487 ft 135 kts 315°
2026-04-22 05:50 64.50514 -15.89004 8494 ft 139 kts 315°
2026-04-22 05:50 64.51216 -15.90610 8501 ft 144 kts 315°
2026-04-22 05:50 64.51942 -15.92266 8518 ft 148 kts 315°
2026-04-22 05:51 64.52689 -15.93973 8526 ft 153 kts 315°
2026-04-22 05:51 64.53453 -15.95726 8533 ft 155 kts 315°
2026-04-22 05:51 64.54225 -15.97494 8538 ft 156 kts 315°
2026-04-22 05:51 64.55000 -15.99275 8542 ft 157 kts 315°
2026-04-22 05:52 64.55778 -16.01062 8544 ft 158 kts 315°
2026-04-22 05:52 64.56548 -16.02834 8544 ft 158 kts 315°
2026-04-22 05:52 64.57329 -16.04632 8545 ft 158 kts 315°
2026-04-22 05:52 64.58122 -16.06457 8546 ft 158 kts 315°
2026-04-22 05:53 64.58905 -16.08263 8545 ft 159 kts 315°
2026-04-22 05:53 64.59679 -16.10047 8545 ft 159 kts 315°
2026-04-22 05:53 64.60463 -16.11858 8545 ft 159 kts 315°
2026-04-22 05:53 64.61247 -16.13671 8559 ft 159 kts 315°
2026-04-22 05:54 64.62031 -16.15487 8560 ft 159 kts 315°
2026-04-22 05:54 64.62816 -16.17301 8560 ft 159 kts 315°
2026-04-22 05:54 64.63600 -16.19119 8560 ft 159 kts 315°
2026-04-22 05:54 64.64384 -16.20938 8560 ft 159 kts 315°
2026-04-22 05:55 64.65168 -16.22756 8556 ft 159 kts 315°
2026-04-22 05:55 64.65949 -16.24575 8557 ft 159 kts 315°
2026-04-22 05:55 64.66732 -16.26393 8557 ft 159 kts 315°
2026-04-22 05:55 64.67514 -16.28213 8557 ft 159 kts 315°
2026-04-22 05:56 64.68295 -16.30035 8558 ft 159 kts 315°
2026-04-22 05:56 64.69079 -16.31862 8559 ft 159 kts 315°
2026-04-22 05:56 64.69862 -16.33684 8558 ft 159 kts 315°
2026-04-22 05:56 64.70640 -16.35506 8558 ft 159 kts 315°
2026-04-22 05:57 64.71420 -16.37329 8564 ft 158 kts 315°
2026-04-22 05:57 64.72195 -16.39141 8565 ft 157 kts 315°
2026-04-22 05:57 64.72965 -16.40941 8562 ft 156 kts 314°
2026-04-22 05:57 64.73729 -16.42735 8544 ft 156 kts 315°
2026-04-22 05:58 64.74492 -16.44525 8546 ft 155 kts 314°
2026-04-22 05:58 64.75254 -16.46317 8539 ft 155 kts 314°
2026-04-22 05:58 64.76011 -16.48098 8538 ft 157 kts 314°
2026-04-22 05:58 64.76782 -16.49905 8539 ft 156 kts 314°
2026-04-22 05:59 64.77546 -16.51699 8540 ft 155 kts 314°
2026-04-22 05:59 64.78306 -16.53499 8539 ft 156 kts 314°
2026-04-22 05:59 64.79070 -16.55295 8543 ft 155 kts 314°
2026-04-22 05:59 64.79828 -16.57083 8540 ft 154 kts 314°
2026-04-22 06:00 64.80584 -16.58871 8536 ft 154 kts 314°
2026-04-22 06:00 64.81340 -16.60662 8539 ft 155 kts 314°
2026-04-22 06:00 64.82097 -16.62446 8540 ft 154 kts 314°
2026-04-22 06:00 64.82854 -16.64239 8540 ft 154 kts 314°
2026-04-22 06:01 64.83611 -16.66038 8539 ft 155 kts 314°
2026-04-22 06:01 64.84374 -16.67844 8541 ft 155 kts 314°
2026-04-22 06:01 64.85134 -16.69650 8541 ft 155 kts 314°
2026-04-22 06:01 64.85893 -16.71453 8541 ft 155 kts 314°
2026-04-22 06:02 64.86654 -16.73256 8542 ft 154 kts 314°
2026-04-22 06:02 64.87404 -16.75044 8542 ft 153 kts 314°
2026-04-22 06:02 64.88152 -16.76831 8541 ft 154 kts 314°
2026-04-22 06:02 64.88907 -16.78631 8541 ft 155 kts 314°
2026-04-22 06:03 64.89663 -16.80428 8542 ft 155 kts 314°
2026-04-22 06:03 64.90423 -16.82245 8541 ft 156 kts 314°
2026-04-22 06:03 64.91178 -16.84047 8541 ft 156 kts 314°
2026-04-22 06:03 64.91940 -16.85870 8552 ft 156 kts 314°
2026-04-22 06:04 64.92695 -16.87679 8550 ft 155 kts 314°
2026-04-22 06:04 64.93448 -16.89491 8552 ft 154 kts 314°
2026-04-22 06:04 64.94201 -16.91291 8551 ft 154 kts 314°
2026-04-22 06:04 64.94953 -16.93091 8551 ft 153 kts 314°
2026-04-22 06:05 64.95700 -16.94891 8549 ft 154 kts 314°
2026-04-22 06:05 64.96453 -16.96698 8550 ft 154 kts 314°
2026-04-22 06:05 64.97203 -16.98505 8554 ft 155 kts 313°
2026-04-22 06:05 64.97959 -17.00328 8553 ft 156 kts 314°
2026-04-22 06:06 64.98721 -17.02162 8556 ft 156 kts 313°
2026-04-22 06:06 64.99482 -17.03998 8557 ft 156 kts 313°
2026-04-22 06:06 65.00242 -17.05835 8557 ft 156 kts 313°
2026-04-22 06:06 65.01003 -17.07671 8557 ft 156 kts 313°
2026-04-22 06:07 65.01760 -17.09499 8557 ft 155 kts 313°
2026-04-22 06:07 65.02513 -17.11326 8565 ft 155 kts 313°
2026-04-22 06:07 65.03269 -17.13160 8564 ft 156 kts 313°
2026-04-22 06:07 65.04029 -17.14997 8565 ft 155 kts 313°
2026-04-22 06:08 65.04785 -17.16834 8564 ft 156 kts 313°
2026-04-22 06:08 65.05532 -17.18650 8564 ft 156 kts 313°
2026-04-22 06:08 65.06301 -17.20520 8564 ft 156 kts 313°
2026-04-22 06:08 65.07049 -17.22336 8564 ft 156 kts 313°
2026-04-22 06:09 65.07804 -17.24178 8565 ft 156 kts 313°
2026-04-22 06:09 65.08560 -17.26018 8565 ft 155 kts 313°
2026-04-22 06:09 65.09312 -17.27853 8566 ft 155 kts 313°
2026-04-22 06:09 65.10063 -17.29690 8565 ft 155 kts 313°
2026-04-22 06:10 65.10816 -17.31531 8563 ft 156 kts 313°
2026-04-22 06:10 65.11571 -17.33377 8564 ft 156 kts 313°
2026-04-22 06:10 65.12326 -17.35229 8563 ft 156 kts 313°
2026-04-22 06:10 65.13086 -17.37088 8563 ft 157 kts 313°
2026-04-22 06:11 65.13845 -17.38947 8564 ft 157 kts 313°
2026-04-22 06:11 65.14600 -17.40800 8566 ft 156 kts 313°
2026-04-22 06:11 65.15346 -17.42636 8570 ft 156 kts 313°
2026-04-22 06:11 65.16113 -17.44519 8567 ft 156 kts 313°
2026-04-22 06:12 65.16865 -17.46368 8567 ft 154 kts 313°
2026-04-22 06:12 65.17608 -17.48205 8566 ft 155 kts 313°
2026-04-22 06:12 65.18361 -17.50058 8566 ft 156 kts 313°
2026-04-22 06:12 65.19113 -17.51909 8565 ft 155 kts 313°
2026-04-22 06:13 65.19849 -17.53733 8565 ft 155 kts 313°
2026-04-22 06:13 65.20602 -17.55594 8566 ft 157 kts 313°
2026-04-22 06:13 65.21359 -17.57463 8567 ft 156 kts 313°
2026-04-22 06:13 65.22118 -17.59340 8496 ft 159 kts 313°
2026-04-22 06:14 65.22895 -17.61271 8396 ft 163 kts 312°
2026-04-22 06:14 65.23687 -17.63230 8303 ft 164 kts 313°
2026-04-22 06:14 65.24454 -17.65124 8199 ft 154 kts 313°
2026-04-22 06:14 65.25184 -17.66944 8095 ft 149 kts 313°
2026-04-22 06:15 65.25892 -17.68709 8030 ft 145 kts 313°
2026-04-22 06:15 65.26579 -17.70422 8001 ft 140 kts 312°
2026-04-22 06:15 65.27247 -17.72090 7995 ft 138 kts 313°
2026-04-22 06:15 65.27904 -17.73730 7987 ft 135 kts 313°
2026-04-22 06:16 65.28552 -17.75346 7980 ft 134 kts 312°
2026-04-22 06:16 65.29196 -17.76955 7980 ft 134 kts 313°
2026-04-22 06:16 65.29839 -17.78577 7962 ft 133 kts 311°
2026-04-22 06:16 65.30485 -17.80169 7965 ft 134 kts 313°
2026-04-22 06:17 65.31108 -17.81758 7963 ft 131 kts 312°
2026-04-22 06:17 65.31743 -17.83336 7960 ft 129 kts 313°
2026-04-22 06:17 65.32360 -17.84874 7961 ft 130 kts 312°
2026-04-22 06:17 65.32987 -17.86446 7947 ft 131 kts 312°
2026-04-22 06:18 65.33617 -17.88026 7948 ft 131 kts 312°
2026-04-22 06:18 65.34247 -17.89610 7947 ft 132 kts 312°
2026-04-22 06:18 65.34879 -17.91199 7949 ft 131 kts 312°
2026-04-22 06:18 65.35590 -17.92565 7934 ft 134 kts 331°
2026-04-22 06:19 65.36513 -17.92961 7917 ft 139 kts 359°
2026-04-22 06:19 65.37445 -17.92241 7907 ft 143 kts 23°
2026-04-22 06:19 65.38379 -17.91581 7913 ft 138 kts
2026-04-22 06:19 65.39329 -17.91308 7927 ft 137 kts
2026-04-22 06:20 65.40272 -17.91039 7949 ft 136 kts
2026-04-22 06:20 65.41213 -17.90773 7973 ft 136 kts
2026-04-22 06:20 65.42150 -17.90508 7996 ft 135 kts
2026-04-22 06:20 65.43084 -17.90246 8019 ft 135 kts
2026-04-22 06:21 65.44028 -17.89987 8023 ft 137 kts
2026-04-22 06:21 65.44989 -17.89706 8026 ft 141 kts
2026-04-22 06:21 65.45951 -17.89423 8022 ft 141 kts
2026-04-22 06:21 65.46926 -17.89149 8023 ft 141 kts
2026-04-22 06:22 65.47897 -17.88879 8024 ft 140 kts
2026-04-22 06:22 65.48870 -17.88606 8025 ft 141 kts
2026-04-22 06:22 65.49850 -17.88322 8027 ft 142 kts
2026-04-22 06:22 65.50840 -17.88043 8027 ft 143 kts
2026-04-22 06:23 65.51828 -17.87761 8025 ft 143 kts
2026-04-22 06:23 65.52813 -17.87479 8032 ft 143 kts
2026-04-22 06:23 65.53807 -17.87195 8031 ft 144 kts
2026-04-22 06:23 65.54800 -17.86913 8027 ft 143 kts
2026-04-22 06:24 65.56781 -17.86466 7931 ft 146 kts
2026-04-22 06:24 65.57804 -17.86263 7840 ft 149 kts
2026-04-22 06:24 65.58841 -17.86045 7746 ft 150 kts
2026-04-22 06:25 65.59883 -17.85828 7652 ft 150 kts
2026-04-22 06:25 65.60917 -17.85610 7558 ft 152 kts
2026-04-22 06:25 65.61970 -17.85390 7461 ft 152 kts
2026-04-22 06:25 65.63018 -17.85167 7365 ft 151 kts
2026-04-22 06:26 65.64066 -17.84953 7267 ft 151 kts
2026-04-22 06:26 65.65109 -17.84735 7169 ft 151 kts
2026-04-22 06:26 65.66155 -17.84513 7077 ft 151 kts
2026-04-22 06:26 65.67204 -17.84293 6978 ft 152 kts
2026-04-22 06:27 65.68258 -17.84071 6887 ft 153 kts
2026-04-22 06:27 65.69316 -17.83847 6785 ft 152 kts
2026-04-22 06:27 65.70005 -17.83701 6715 ft 147 kts
2026-04-22 06:27 65.70973 -17.83487 6596 ft 133 kts
2026-04-22 06:28 65.71869 -17.83305 6475 ft 126 kts
2026-04-22 06:28 65.72719 -17.83130 6353 ft 119 kts
2026-04-22 06:28 65.73535 -17.82965 6238 ft 117 kts
2026-04-22 06:28 65.74338 -17.82799 6126 ft 115 kts
2026-04-22 06:29 65.75133 -17.82633 6030 ft 114 kts 360°
2026-04-22 06:29 65.75910 -17.82470 5971 ft 111 kts 360°
2026-04-22 06:29 65.76669 -17.82313 5941 ft 107 kts 360°
2026-04-22 06:29 65.77393 -17.82166 5929 ft 102 kts 359°
2026-04-22 06:30 65.78089 -17.82027 5914 ft 98 kts 358°
2026-04-22 06:30 65.78760 -17.81890 5897 ft 94 kts 358°
2026-04-22 06:30 65.79408 -17.81763 5884 ft 97 kts 357°
2026-04-22 06:30 65.80128 -17.81629 5909 ft 111 kts
2026-04-22 06:31 65.80939 -17.81422 5940 ft 122 kts
2026-04-22 06:31 65.81824 -17.81220 5982 ft 133 kts
2026-04-22 06:31 65.82759 -17.81009 5970 ft 135 kts
2026-04-22 06:31 65.83706 -17.81100 5890 ft 139 kts 345°
2026-04-22 06:32 65.84548 -17.82199 5771 ft 138 kts 317°
2026-04-22 06:32 65.85080 -17.84144 5660 ft 140 kts 291°
2026-04-22 06:32 65.85196 -17.86487 5546 ft 143 kts 267°
2026-04-22 06:32 65.85159 -17.88936 5450 ft 143 kts 275°
2026-04-22 06:33 65.85337 -17.91264 5350 ft 133 kts 282°
2026-04-22 06:33 65.85534 -17.93332 5232 ft 119 kts 282°
2026-04-22 06:33 65.85705 -17.95193 5107 ft 109 kts 281°
2026-04-22 06:33 65.85866 -17.96882 4985 ft 95 kts 282°
2026-04-22 06:34 65.85989 -17.98428 4850 ft 94 kts 277°
2026-04-22 06:34 65.85862 -17.99973 4692 ft 91 kts 247°
2026-04-22 06:34 65.85630 -18.01378 4578 ft 89 kts 252°
2026-04-22 06:34 65.85445 -18.02809 4469 ft 88 kts 252°
2026-04-22 06:35 65.85244 -18.04232 4379 ft 91 kts 251°
2026-04-22 06:35 65.85058 -18.05753 4277 ft 94 kts 254°
2026-04-22 06:35 65.84870 -18.07259 4169 ft 91 kts 252°
2026-04-22 06:35 65.84678 -18.08702 4063 ft 88 kts 252°
2026-04-22 06:36 65.84491 -18.10125 3957 ft 88 kts 252°
2026-04-22 06:36 65.84304 -18.11538 3857 ft 87 kts 252°
2026-04-22 06:36 65.83942 -18.12565 3713 ft 80 kts 211°
2026-04-22 06:36 65.83409 -18.12614 3579 ft 76 kts 173°
2026-04-22 06:37 65.82906 -18.12402 3449 ft 72 kts 178°
2026-04-22 06:37 65.82422 -18.12215 3327 ft 70 kts 176°
2026-04-22 06:37 65.81943 -18.12052 3206 ft 69 kts 172°
2026-04-22 06:37 65.81468 -18.11882 3091 ft 70 kts 172°
2026-04-22 06:38 65.80999 -18.11506 2958 ft 72 kts 160°
2026-04-22 06:38 65.80537 -18.11060 2825 ft 72 kts 162°
2026-04-22 06:38 65.80041 -18.10774 2682 ft 74 kts 169°
2026-04-22 06:38 65.79534 -18.10497 2531 ft 76 kts 169°
2026-04-22 06:39 65.79025 -18.10231 2399 ft 74 kts 170°
2026-04-22 06:39 65.78526 -18.09979 2289 ft 72 kts 169°
2026-04-22 06:39 65.78050 -18.09686 2177 ft 72 kts 165°
2026-04-22 06:39 65.77564 -18.09357 2048 ft 71 kts 163°
2026-04-22 06:40 65.77076 -18.09016 1983 ft 75 kts 164°
2026-04-22 06:40 65.76562 -18.08703 1913 ft 78 kts 164°
2026-04-22 06:40 65.76030 -18.08467 1854 ft 78 kts 171°
2026-04-22 06:40 65.75488 -18.08401 1787 ft 79 kts 176°
2026-04-22 06:41 65.74946 -18.08421 1733 ft 77 kts 177°
2026-04-22 06:41 65.74398 -18.08448 1634 ft 80 kts 179°
2026-04-22 06:41 65.73836 -18.08544 1543 ft 81 kts 179°
2026-04-22 06:41 65.73273 -18.08619 1451 ft 81 kts 177°
2026-04-22 06:42 65.72702 -18.08601 1352 ft 83 kts 174°
2026-04-22 06:42 65.72136 -18.08523 1252 ft 79 kts 173°
2026-04-22 06:42 65.71591 -18.08403 1131 ft 79 kts 171°
2026-04-22 06:42 65.71048 -18.08250 992 ft 78 kts 170°
2026-04-22 06:43 65.70525 -18.08112 893 ft 74 kts 173°
2026-04-22 06:43 65.70020 -18.07988 800 ft 72 kts 173°
2026-04-22 06:43 65.69521 -18.07848 718 ft 72 kts 174°
2026-04-22 06:43 65.69015 -18.07755 588 ft 73 kts 175°
2026-04-22 06:44 65.68520 -18.07660 514 ft 70 kts 178°
2026-04-22 06:44 65.68035 -18.07566 421 ft 69 kts 174°
2026-04-22 06:44 65.67540 -18.07534 264 ft 73 kts 178°
2026-04-22 06:44 65.67038 -18.07438 135 ft 73 kts 174°
2026-04-22 06:45 65.66540 -18.07357 31 ft 69 kts 177°
2026-04-22 06:45 65.66133 -18.07284 9 ft 48 kts 176°
2026-04-22 06:45 65.65831 -18.07229 12 ft 46 kts 174°
2026-04-22 06:45 65.65574 -18.07185 12 ft 20 kts 179°
2026-04-22 06:46 65.65485 -18.07260 10 ft 10 kts 257°
2026-04-22 06:46 65.65477 -18.07363 11 ft 4 kts 260°
2026-04-22 06:46 65.65477 -18.07368 11 ft 0 kts 262°
2026-04-22 06:46 65.65475 -18.07399 11 ft 6 kts 249°
2026-04-22 06:47 65.65470 -18.07414 11 ft 3 kts 221°
2026-04-22 06:47 65.65412 -18.07411 11 ft 9 kts 176°
2026-04-22 06:47 65.65382 -18.07497 11 ft 7 kts 264°
2026-04-22 06:47 65.65384 -18.07565 11 ft 3 kts 282°
2026-04-22 06:48 65.65385 -18.07624 11 ft 3 kts 267°
2026-04-22 06:48 65.65377 -18.07709 11 ft 2 kts 221°
2026-04-22 06:48 65.65376 -18.07711 11 ft 0 kts 222°